Time,TemperatureF,DewpointF,PressureIn,WindDirection,WindDirectionDegrees,WindSpeedMPH,WindSpeedGustMPH,Humidity,HourlyPrecipIn,Conditions,Clouds,dailyrainin,SoftwareType,DateUTC
2013-03-03 00:02:00,9.4,1.0,30.00,SE,141,0.0,0.0,68,0.00,,---,0.00,VWS V14.01,2013-03-03 09:02:00,
2013-03-03 00:03:00,9.4,1.3,29.99,ENE,69,0.0,3.0,69,0.00,,---,0.00,VWS V14.01,2013-03-03 09:03:00,
2013-03-03 00:04:00,9.4,1.3,29.99,ENE,69,0.0,3.0,69,0.00,,---,0.00,VWS V14.01,2013-03-03 09:04:00,
2013-03-03 00:07:00,9.5,1.1,29.99,SW,215,0.0,1.0,68,0.00,,---,0.00,VWS V14.01,2013-03-03 09:07:00,
2013-03-03 00:09:00,9.4,0.7,29.99,ENE,59,0.0,2.0,67,0.00,,---,0.00,VWS V14.01,2013-03-03 09:09:00,
2013-03-03 00:12:00,9.3,1.2,29.99,SSW,202,2.0,3.0,69,0.00,,---,0.00,VWS V14.01,2013-03-03 09:12:00,
2013-03-03 00:14:00,9.3,0.9,29.99,SSW,202,1.0,3.0,68,0.00,,---,0.00,VWS V14.01,2013-03-03 09:14:00,
2013-03-03 00:17:00,9.5,1.4,29.99,ENE,74,1.0,2.0,69,0.00,,---,0.00,VWS V14.01,2013-03-03 09:17:00,
2013-03-03 00:18:00,9.5,1.7,29.99,ENE,74,0.0,2.0,70,0.00,,---,0.00,VWS V14.01,2013-03-03 09:18:00,
2013-03-03 00:19:00,9.5,1.7,29.99,ENE,74,0.0,2.0,70,0.00,,---,0.00,VWS V14.01,2013-03-03 09:19:00,
2013-03-03 00:22:00,9.9,2.1,29.99,SE,130,1.0,2.0,70,0.00,,---,0.00,VWS V14.01,2013-03-03 09:22:00,
2013-03-03 00:23:00,10.1,2.3,29.99,ESE,122,1.0,2.0,70,0.00,,---,0.00,VWS V14.01,2013-03-03 09:23:00,
2013-03-03 00:24:00,10.2,2.4,29.99,ESE,122,1.0,2.0,70,0.00,,---,0.00,VWS V14.01,2013-03-03 09:24:00,
2013-03-03 00:25:00,10.3,2.2,29.99,ESE,122,0.0,2.0,69,0.00,,---,0.00,VWS V14.01,2013-03-03 09:25:00,
2013-03-03 00:27:00,10.5,2.0,29.99,ESE,122,1.0,1.0,68,0.00,,---,0.00,VWS V14.01,2013-03-03 09:27:00,
2013-03-03 00:28:00,10.6,2.5,29.99,SE,128,1.0,1.0,69,0.00,,---,0.00,VWS V14.01,2013-03-03 09:28:00,
2013-03-03 00:29:00,10.7,2.5,29.99,South,171,2.0,3.0,69,0.00,,---,0.00,VWS V14.01,2013-03-03 09:29:00,
2013-03-03 00:30:00,10.9,2.7,29.99,South,175,4.0,6.0,69,0.00,,---,0.00,VWS V14.01,2013-03-03 09:30:00,
2013-03-03 00:33:00,12.1,4.2,29.99,South,178,6.0,6.0,70,0.00,,---,0.00,VWS V14.01,2013-03-03 09:33:00,
2013-03-03 00:34:00,12.5,4.3,29.99,South,177,1.0,6.0,69,0.00,,---,0.00,VWS V14.01,2013-03-03 09:34:00,
2013-03-03 00:35:00,12.9,4.3,30.00,South,169,1.0,6.0,68,0.00,,---,0.00,VWS V14.01,2013-03-03 09:35:00,
2013-03-03 00:38:00,13.4,4.8,30.00,SSE,148,2.0,4.0,68,0.00,,---,0.00,VWS V14.01,2013-03-03 09:38:00,
2013-03-03 00:39:00,13.7,5.1,30.00,SSE,153,1.0,5.0,68,0.00,,---,0.00,VWS V14.01,2013-03-03 09:39:00,
2013-03-03 00:40:00,14.1,5.8,30.00,SE,126,4.0,5.0,69,0.00,,---,0.00,VWS V14.01,2013-03-03 09:40:00,
2013-03-03 00:43:00,15.1,6.8,30.00,East,101,2.0,5.0,69,0.00,,---,0.00,VWS V14.01,2013-03-03 09:43:00,
2013-03-03 00:44:00,15.6,7.3,29.99,ENE,69,3.0,5.0,69,0.00,,---,0.00,VWS V14.01,2013-03-03 09:44:00,
2013-03-03 00:46:00,16.4,7.7,29.99,ESE,107,5.0,12.0,68,0.00,,---,0.00,VWS V14.01,2013-03-03 09:46:00,
2013-03-03 00:48:00,17.7,8.3,29.99,ESE,116,4.0,6.0,66,0.00,,---,0.00,VWS V14.01,2013-03-03 09:48:00,
2013-03-03 00:49:00,17.9,8.1,29.99,SE,144,4.0,6.0,65,0.00,,---,0.00,VWS V14.01,2013-03-03 09:49:00,
2013-03-03 00:51:00,18.5,8.4,29.99,East,90,7.0,11.0,64,0.00,,---,0.00,VWS V14.01,2013-03-03 09:51:00,
2013-03-03 00:53:00,19.2,8.7,29.98,East,89,5.0,8.0,63,0.00,,---,0.00,VWS V14.01,2013-03-03 09:53:00,
2013-03-03 00:54:00,19.3,8.8,29.98,East,94,6.0,8.0,63,0.00,,---,0.00,VWS V14.01,2013-03-03 09:54:00,
2013-03-03 00:56:00,19.5,8.6,29.98,East,89,3.0,8.0,62,0.00,,---,0.00,VWS V14.01,2013-03-03 09:56:00,
2013-03-03 00:58:00,19.7,8.8,29.97,ENE,75,6.0,10.0,62,0.00,,---,0.00,VWS V14.01,2013-03-03 09:58:00,
2013-03-03 00:59:00,19.7,8.8,29.97,ENE,77,13.0,13.0,62,0.00,,---,0.00,VWS V14.01,2013-03-03 09:59:00,
2013-03-03 01:01:00,20.0,9.1,29.97,ENE,67,6.0,15.0,62,0.00,,---,0.00,VWS V14.01,2013-03-03 10:01:00,
2013-03-03 01:03:00,20.1,9.2,29.98,East,91,7.0,12.0,62,0.00,,---,0.00,VWS V14.01,2013-03-03 10:03:00,
2013-03-03 01:04:00,20.2,8.9,29.98,East,86,10.0,12.0,61,0.00,,---,0.00,VWS V14.01,2013-03-03 10:04:00,
2013-03-03 01:06:00,20.2,8.9,29.98,East,87,6.0,12.0,61,0.00,,---,0.00,VWS V14.01,2013-03-03 10:06:00,
2013-03-03 01:09:00,20.1,8.8,29.97,ESE,104,1.0,11.0,61,0.00,,---,0.00,VWS V14.01,2013-03-03 10:09:00,
2013-03-03 01:10:00,20.0,8.7,29.97,East,84,5.0,11.0,61,0.00,,---,0.00,VWS V14.01,2013-03-03 10:10:00,
2013-03-03 01:12:00,20.0,8.7,29.97,East,90,1.0,11.0,61,0.00,,---,0.00,VWS V14.01,2013-03-03 10:12:00,
2013-03-03 01:14:00,19.8,8.5,29.97,SE,134,4.0,11.0,61,0.00,,---,0.00,VWS V14.01,2013-03-03 10:14:00,
2013-03-03 01:15:00,19.7,8.1,29.98,SSE,167,4.0,11.0,60,0.00,,---,0.00,VWS V14.01,2013-03-03 10:15:00,
2013-03-03 01:17:00,19.5,7.9,29.98,SSE,167,0.0,0.0,60,0.00,,---,0.00,VWS V14.01,2013-03-03 10:17:00,
2013-03-03 01:19:00,19.3,7.7,29.97,WSW,248,1.0,6.0,60,0.00,,---,0.00,VWS V14.01,2013-03-03 10:19:00,
2013-03-03 01:20:00,19.2,7.6,29.97,WNW,297,3.0,6.0,60,0.00,,---,0.00,VWS V14.01,2013-03-03 10:20:00,
2013-03-03 01:22:00,19.2,8.0,29.96,ESE,115,4.0,4.0,61,0.00,,---,0.00,VWS V14.01,2013-03-03 10:22:00,
2013-03-03 01:24:00,19.5,8.6,29.96,ENE,71,4.0,12.0,62,0.00,,---,0.00,VWS V14.01,2013-03-03 10:24:00,
2013-03-03 01:25:00,19.7,8.4,29.95,East,86,12.0,15.0,61,0.00,,---,0.00,VWS V14.01,2013-03-03 10:25:00,
2013-03-03 01:27:00,20.0,8.7,29.95,ENE,61,13.0,14.0,61,0.00,,---,0.00,VWS V14.01,2013-03-03 10:27:00,
2013-03-03 01:29:00,20.3,8.6,29.95,NE,43,12.0,20.0,60,0.00,,---,0.00,VWS V14.01,2013-03-03 10:29:00,
2013-03-03 01:30:00,20.3,8.6,29.95,East,91,18.0,20.0,60,0.00,,---,0.00,VWS V14.01,2013-03-03 10:30:00,
2013-03-03 01:32:00,20.4,8.7,29.95,ENE,65,7.0,16.0,60,0.00,,---,0.00,VWS V14.01,2013-03-03 10:32:00,
2013-03-03 01:34:00,20.5,8.8,29.96,East,82,11.0,19.0,60,0.00,,---,0.00,VWS V14.01,2013-03-03 10:34:00,
2013-03-03 01:35:00,20.5,8.8,29.96,East,90,7.0,19.0,60,0.00,,---,0.00,VWS V14.01,2013-03-03 10:35:00,
2013-03-03 01:37:00,20.4,9.1,29.96,ENE,67,8.0,13.0,61,0.00,,---,0.00,VWS V14.01,2013-03-03 10:37:00,
2013-03-03 01:39:00,20.3,9.0,29.97,East,93,5.0,13.0,61,0.00,,---,0.00,VWS V14.01,2013-03-03 10:39:00,
2013-03-03 01:40:00,20.3,9.0,29.97,East,83,2.0,13.0,61,0.00,,---,0.00,VWS V14.01,2013-03-03 10:40:00,
2013-03-03 01:41:00,20.3,9.0,29.97,ENE,76,3.0,13.0,61,0.00,,---,0.00,VWS V14.01,2013-03-03 10:41:00,
2013-03-03 01:43:00,20.2,8.9,29.97,South,184,2.0,5.0,61,0.00,,---,0.00,VWS V14.01,2013-03-03 10:43:00,
2013-03-03 01:45:00,20.0,8.7,29.98,SSE,165,5.0,7.0,61,0.00,,---,0.00,VWS V14.01,2013-03-03 10:45:00,
2013-03-03 01:46:00,20.0,8.7,29.98,South,178,5.0,7.0,61,0.00,,---,0.00,VWS V14.01,2013-03-03 10:46:00,
2013-03-03 01:48:00,19.8,8.5,29.98,SE,144,7.0,9.0,61,0.00,,---,0.00,VWS V14.01,2013-03-03 10:48:00,
2013-03-03 01:50:00,19.6,8.0,29.99,SSE,168,6.0,9.0,60,0.00,,---,0.00,VWS V14.01,2013-03-03 10:50:00,
2013-03-03 01:51:00,19.4,7.8,29.99,SSW,202,4.0,9.0,60,0.00,,---,0.00,VWS V14.01,2013-03-03 10:51:00,
2013-03-03 01:53:00,18.8,7.2,29.99,SSW,198,8.0,8.0,60,0.00,,---,0.00,VWS V14.01,2013-03-03 10:53:00,
2013-03-03 01:55:00,18.3,7.1,29.99,SSW,196,3.0,10.0,61,0.00,,---,0.00,VWS V14.01,2013-03-03 10:55:00,
2013-03-03 01:56:00,18.2,7.4,29.99,South,176,4.0,10.0,62,0.00,,---,0.00,VWS V14.01,2013-03-03 10:56:00,
2013-03-03 01:58:00,18.0,7.2,29.99,SSE,152,6.0,7.0,62,0.00,,---,0.00,VWS V14.01,2013-03-03 10:58:00,
2013-03-03 02:00:00,18.0,7.5,30.00,SSE,155,1.0,7.0,63,0.00,,---,0.00,VWS V14.01,2013-03-03 11:00:00,
2013-03-03 02:01:00,18.0,7.2,30.00,SSE,149,5.0,7.0,62,0.00,,---,0.00,VWS V14.01,2013-03-03 11:01:00,
2013-03-03 02:03:00,18.0,7.5,30.00,West,274,1.0,3.0,63,0.00,,---,0.00,VWS V14.01,2013-03-03 11:03:00,
2013-03-03 02:05:00,18.0,7.5,30.00,SW,214,1.0,3.0,63,0.00,,---,0.00,VWS V14.01,2013-03-03 11:05:00,
2013-03-03 02:06:00,18.1,7.6,30.00,SW,225,5.0,6.0,63,0.00,,---,0.00,VWS V14.01,2013-03-03 11:06:00,
2013-03-03 02:09:00,18.5,8.0,30.00,WSW,244,1.0,6.0,63,0.00,,---,0.00,VWS V14.01,2013-03-03 11:09:00,
2013-03-03 02:10:00,18.6,7.8,30.00,SW,227,1.0,6.0,62,0.00,,---,0.00,VWS V14.01,2013-03-03 11:10:00,
2013-03-03 02:11:00,18.6,7.8,30.00,SSW,196,1.0,6.0,62,0.00,,---,0.00,VWS V14.01,2013-03-03 11:11:00,
2013-03-03 02:14:00,18.6,7.8,29.99,SW,215,6.0,7.0,62,0.00,,---,0.00,VWS V14.01,2013-03-03 11:14:00,
2013-03-03 02:15:00,18.6,7.4,29.99,SW,225,6.0,9.0,61,0.00,,---,0.00,VWS V14.01,2013-03-03 11:15:00,
2013-03-03 02:16:00,18.4,7.6,29.99,WSW,250,5.0,9.0,62,0.00,,---,0.00,VWS V14.01,2013-03-03 11:16:00,
2013-03-03 02:17:00,18.4,7.6,29.99,WSW,238,3.0,4.0,62,0.00,,---,0.00,VWS V14.01,2013-03-03 11:17:00,
2013-03-03 02:19:00,18.1,7.3,29.99,SW,221,5.0,9.0,62,0.00,,---,0.00,VWS V14.01,2013-03-03 11:19:00,
2013-03-03 02:21:00,18.4,7.9,29.99,SSW,204,6.0,9.0,63,0.00,,---,0.00,VWS V14.01,2013-03-03 11:21:00,
2013-03-03 02:22:00,18.7,8.2,29.99,SSE,167,8.0,9.0,63,0.00,,---,0.00,VWS V14.01,2013-03-03 11:22:00,
2013-03-03 02:24:00,19.0,8.5,29.99,SE,134,4.0,9.0,63,0.00,,---,0.00,VWS V14.01,2013-03-03 11:24:00,
2013-03-03 02:26:00,19.3,8.4,30.00,South,171,2.0,9.0,62,0.00,,---,0.00,VWS V14.01,2013-03-03 11:26:00,
2013-03-03 02:27:00,19.3,8.4,30.00,WSW,252,4.0,8.0,62,0.00,,---,0.00,VWS V14.01,2013-03-03 11:27:00,
2013-03-03 02:29:00,19.4,8.5,30.00,WSW,249,3.0,8.0,62,0.00,,---,0.00,VWS V14.01,2013-03-03 11:29:00,
2013-03-03 02:31:00,19.5,8.6,30.00,South,184,2.0,8.0,62,0.00,,---,0.00,VWS V14.01,2013-03-03 11:31:00,
2013-03-03 02:32:00,19.6,8.7,30.00,South,191,5.0,6.0,62,0.00,,---,0.00,VWS V14.01,2013-03-03 11:32:00,
2013-03-03 02:34:00,19.7,8.4,30.00,SW,217,5.0,9.0,61,0.00,,---,0.00,VWS V14.01,2013-03-03 11:34:00,
2013-03-03 02:36:00,19.7,8.4,30.00,SSE,151,9.0,9.0,61,0.00,,---,0.00,VWS V14.01,2013-03-03 11:36:00,
2013-03-03 02:37:00,19.7,8.4,30.00,SSW,211,5.0,5.0,61,0.00,,---,0.00,VWS V14.01,2013-03-03 11:37:00,
2013-03-03 02:39:00,19.9,8.6,30.00,SSW,212,5.0,12.0,61,0.00,,---,0.00,VWS V14.01,2013-03-03 11:39:00,
2013-03-03 02:42:00,20.0,8.7,29.99,South,174,4.0,12.0,61,0.00,,---,0.00,VWS V14.01,2013-03-03 11:42:00,
2013-03-03 02:44:00,20.0,8.7,30.00,SSW,194,2.0,8.0,61,0.00,,---,0.00,VWS V14.01,2013-03-03 11:44:00,
2013-03-03 02:47:00,20.0,8.7,30.00,SSE,148,5.0,9.0,61,0.00,,---,0.00,VWS V14.01,2013-03-03 11:47:00,
2013-03-03 02:49:00,20.1,8.8,30.00,East,90,1.0,6.0,61,0.00,,---,0.00,VWS V14.01,2013-03-03 11:49:00,
2013-03-03 02:52:00,20.3,9.0,30.00,SE,128,4.0,4.0,61,0.00,,---,0.00,VWS V14.01,2013-03-03 11:52:00,
2013-03-03 02:53:00,20.3,9.0,30.00,SE,146,4.0,4.0,61,0.00,,---,0.00,VWS V14.01,2013-03-03 11:53:00,
2013-03-03 02:54:00,20.4,8.7,30.00,South,180,5.0,8.0,60,0.00,,---,0.00,VWS V14.01,2013-03-03 11:54:00,
2013-03-03 02:57:00,20.5,8.8,30.00,South,182,4.0,7.0,60,0.00,,---,0.00,VWS V14.01,2013-03-03 11:57:00,
2013-03-03 02:58:00,20.5,8.8,30.00,SE,132,4.0,7.0,60,0.00,,---,0.00,VWS V14.01,2013-03-03 11:58:00,
2013-03-03 03:00:00,20.5,8.8,30.01,ESE,121,2.0,7.0,60,0.00,,---,0.00,VWS V14.01,2013-03-03 12:00:00,
2013-03-03 03:02:00,20.4,8.7,30.01,SSE,153,6.0,6.0,60,0.00,,---,0.00,VWS V14.01,2013-03-03 12:02:00,
2013-03-03 03:03:00,20.4,8.7,30.01,SSE,161,4.0,8.0,60,0.00,,---,0.00,VWS V14.01,2013-03-03 12:03:00,
2013-03-03 03:05:00,20.3,8.6,30.01,SE,125,2.0,8.0,60,0.00,,---,0.00,VWS V14.01,2013-03-03 12:05:00,
2013-03-03 03:07:00,20.1,8.8,30.00,SE,132,1.0,4.0,61,0.00,,---,0.00,VWS V14.01,2013-03-03 12:07:00,
2013-03-03 03:08:00,20.1,8.8,30.00,SE,132,2.0,4.0,61,0.00,,---,0.00,VWS V14.01,2013-03-03 12:08:00,
2013-03-03 03:10:00,19.9,8.6,30.00,ESE,120,1.0,6.0,61,0.00,,---,0.00,VWS V14.01,2013-03-03 12:10:00,
2013-03-03 03:13:00,19.7,8.4,30.01,South,172,5.0,5.0,61,0.00,,---,0.00,VWS V14.01,2013-03-03 12:13:00,
2013-03-03 03:15:00,19.3,8.4,30.01,South,175,4.0,5.0,62,0.00,,---,0.00,VWS V14.01,2013-03-03 12:15:00,
2013-03-03 03:18:00,19.2,8.7,30.01,South,169,2.0,4.0,63,0.00,,---,0.00,VWS V14.01,2013-03-03 12:18:00,
2013-03-03 03:20:00,19.0,8.5,30.01,South,180,2.0,4.0,63,0.00,,---,0.00,VWS V14.01,2013-03-03 12:20:00,
2013-03-03 03:23:00,19.0,8.8,30.02,ESE,123,2.0,4.0,64,0.00,,---,0.00,VWS V14.01,2013-03-03 12:23:00,
2013-03-03 03:26:00,19.0,8.5,30.01,SE,138,1.0,4.0,63,0.00,,---,0.00,VWS V14.01,2013-03-03 12:26:00,
2013-03-03 03:28:00,19.0,8.5,30.01,ESE,123,4.0,4.0,63,0.00,,---,0.00,VWS V14.01,2013-03-03 12:28:00,
2013-03-03 03:29:00,19.0,8.5,30.01,ESE,122,2.0,4.0,63,0.00,,---,0.00,VWS V14.01,2013-03-03 12:29:00,
2013-03-03 03:31:00,18.9,8.8,30.01,ESE,113,4.0,5.0,64,0.00,,---,0.00,VWS V14.01,2013-03-03 12:31:00,
2013-03-03 03:33:00,18.8,8.6,30.01,ESE,113,4.0,4.0,64,0.00,,---,0.00,VWS V14.01,2013-03-03 12:33:00,
2013-03-03 03:34:00,18.8,8.6,30.01,SE,139,4.0,4.0,64,0.00,,---,0.00,VWS V14.01,2013-03-03 12:34:00,
2013-03-03 03:36:00,18.5,8.4,30.01,ESE,107,4.0,5.0,64,0.00,,---,0.00,VWS V14.01,2013-03-03 12:36:00,
2013-03-03 03:38:00,18.4,8.3,30.01,ESE,112,2.0,4.0,64,0.00,,---,0.00,VWS V14.01,2013-03-03 12:38:00,
2013-03-03 03:39:00,18.4,8.3,30.01,ESE,112,2.0,4.0,64,0.00,,---,0.00,VWS V14.01,2013-03-03 12:39:00,
2013-03-03 03:41:00,18.3,8.5,30.01,SE,146,1.0,4.0,65,0.00,,---,0.00,VWS V14.01,2013-03-03 12:41:00,
2013-03-03 03:43:00,18.2,8.4,30.01,SE,139,1.0,4.0,65,0.00,,---,0.00,VWS V14.01,2013-03-03 12:43:00,
2013-03-03 03:44:00,18.2,8.4,30.02,SE,139,2.0,4.0,65,0.00,,---,0.00,VWS V14.01,2013-03-03 12:44:00,
2013-03-03 03:46:00,18.1,8.7,30.02,SSE,148,4.0,5.0,66,0.00,,---,0.00,VWS V14.01,2013-03-03 12:46:00,
2013-03-03 03:49:00,18.0,8.6,30.02,SSE,150,2.0,2.0,66,0.00,,---,0.00,VWS V14.01,2013-03-03 12:49:00,
2013-03-03 03:51:00,17.8,8.4,30.02,South,169,2.0,4.0,66,0.00,,---,0.00,VWS V14.01,2013-03-03 12:51:00,
2013-03-03 03:54:00,17.7,8.6,30.02,ESE,111,2.0,5.0,67,0.00,,---,0.00,VWS V14.01,2013-03-03 12:54:00,
2013-03-03 03:56:00,17.8,8.7,30.02,SSE,147,5.0,6.0,67,0.00,,---,0.00,VWS V14.01,2013-03-03 12:56:00,
2013-03-03 03:59:00,17.9,8.8,30.01,SE,137,6.0,6.0,67,0.00,,---,0.00,VWS V14.01,2013-03-03 12:59:00,
2013-03-03 04:00:00,17.9,8.8,30.02,ESE,121,2.0,6.0,67,0.00,,---,0.00,VWS V14.01,2013-03-03 13:00:00,
2013-03-03 04:02:00,18.1,8.7,30.02,SE,130,4.0,4.0,66,0.00,,---,0.00,VWS V14.01,2013-03-03 13:02:00,
2013-03-03 04:04:00,18.4,9.3,30.02,SSE,155,4.0,7.0,67,0.00,,---,0.00,VWS V14.01,2013-03-03 13:04:00,
2013-03-03 04:05:00,18.6,9.5,30.01,ESE,115,5.0,7.0,67,0.00,,---,0.00,VWS V14.01,2013-03-03 13:05:00,
2013-03-03 04:07:00,18.7,9.2,30.01,ESE,113,4.0,5.0,66,0.00,,---,0.00,VWS V14.01,2013-03-03 13:07:00,
2013-03-03 04:09:00,18.8,9.3,30.01,SSE,159,5.0,6.0,66,0.00,,---,0.00,VWS V14.01,2013-03-03 13:09:00,
2013-03-03 04:10:00,18.9,9.4,30.01,SE,134,7.0,7.0,66,0.00,,---,0.00,VWS V14.01,2013-03-03 13:10:00,
2013-03-03 04:11:00,19.0,9.5,30.01,SSE,152,4.0,7.0,66,0.00,,---,0.00,VWS V14.01,2013-03-03 13:11:00,
2013-03-03 04:12:00,19.1,9.6,30.01,SE,129,1.0,4.0,66,0.00,,---,0.00,VWS V14.01,2013-03-03 13:12:00,
2013-03-03 04:14:00,19.2,9.7,30.01,SE,134,4.0,6.0,66,0.00,,---,0.00,VWS V14.01,2013-03-03 13:14:00,
2013-03-03 04:15:00,19.3,9.8,30.01,SE,138,4.0,6.0,66,0.00,,---,0.00,VWS V14.01,2013-03-03 13:15:00,
2013-03-03 04:16:00,19.3,9.8,30.01,SE,136,5.0,6.0,66,0.00,,---,0.00,VWS V14.01,2013-03-03 13:16:00,
2013-03-03 04:17:00,19.3,9.8,30.01,ESE,121,2.0,2.0,66,0.00,,---,0.00,VWS V14.01,2013-03-03 13:17:00,
2013-03-03 04:19:00,19.4,9.6,30.02,SE,128,6.0,7.0,65,0.00,,---,0.00,VWS V14.01,2013-03-03 13:19:00,
2013-03-03 04:20:00,19.5,9.7,30.01,SE,134,2.0,7.0,65,0.00,,---,0.00,VWS V14.01,2013-03-03 13:20:00,
2013-03-03 04:21:00,19.6,9.8,30.01,SE,136,4.0,7.0,65,0.00,,---,0.00,VWS V14.01,2013-03-03 13:21:00,
2013-03-03 04:22:00,19.6,9.8,30.01,SE,139,5.0,7.0,65,0.00,,---,0.00,VWS V14.01,2013-03-03 13:22:00,
2013-03-03 04:24:00,19.6,9.8,30.02,SE,143,5.0,7.0,65,0.00,,---,0.00,VWS V14.01,2013-03-03 13:24:00,
2013-03-03 04:25:00,19.5,9.7,30.02,SSE,148,5.0,7.0,65,0.00,,---,0.00,VWS V14.01,2013-03-03 13:25:00,
2013-03-03 04:26:00,19.5,9.7,30.02,SE,137,4.0,7.0,65,0.00,,---,0.00,VWS V14.01,2013-03-03 13:26:00,
2013-03-03 04:27:00,19.5,9.7,30.02,SSE,154,5.0,6.0,65,0.00,,---,0.00,VWS V14.01,2013-03-03 13:27:00,
2013-03-03 04:30:00,19.4,9.6,30.02,South,177,2.0,6.0,65,0.00,,---,0.00,VWS V14.01,2013-03-03 13:30:00,
2013-03-03 04:31:00,19.4,9.6,30.02,South,171,2.0,6.0,65,0.00,,---,0.00,VWS V14.01,2013-03-03 13:31:00,
2013-03-03 04:32:00,19.3,9.8,30.02,SSE,163,2.0,4.0,66,0.00,,---,0.00,VWS V14.01,2013-03-03 13:32:00,
2013-03-03 04:35:00,19.3,9.5,30.01,South,171,2.0,6.0,65,0.00,,---,0.00,VWS V14.01,2013-03-03 13:35:00,
2013-03-03 04:36:00,19.2,9.4,30.02,South,178,4.0,6.0,65,0.00,,---,0.00,VWS V14.01,2013-03-03 13:36:00,
2013-03-03 04:37:00,19.2,9.4,30.02,South,176,2.0,5.0,65,0.00,,---,0.00,VWS V14.01,2013-03-03 13:37:00,
2013-03-03 04:40:00,19.1,9.6,30.01,SSE,167,2.0,5.0,66,0.00,,---,0.00,VWS V14.01,2013-03-03 13:40:00,
2013-03-03 04:41:00,19.1,9.6,30.01,South,178,1.0,5.0,66,0.00,,---,0.00,VWS V14.01,2013-03-03 13:41:00,
2013-03-03 04:42:00,19.1,9.6,30.01,South,178,1.0,5.0,66,0.00,,---,0.00,VWS V14.01,2013-03-03 13:42:00,
2013-03-03 04:43:00,19.2,9.7,30.01,South,178,0.0,1.0,66,0.00,,---,0.00,VWS V14.01,2013-03-03 13:43:00,
2013-03-03 04:45:00,19.2,9.7,30.01,South,169,1.0,1.0,66,0.00,,---,0.00,VWS V14.01,2013-03-03 13:45:00,
2013-03-03 04:46:00,19.1,9.6,30.01,SE,133,2.0,4.0,66,0.00,,---,0.00,VWS V14.01,2013-03-03 13:46:00,
2013-03-03 04:47:00,19.2,9.7,30.01,SE,132,1.0,2.0,66,0.00,,---,0.00,VWS V14.01,2013-03-03 13:47:00,
2013-03-03 04:48:00,19.1,9.3,30.01,SSE,155,1.0,4.0,65,0.00,,---,0.00,VWS V14.01,2013-03-03 13:48:00,
2013-03-03 04:50:00,18.8,9.3,30.01,SE,145,2.0,4.0,66,0.00,,---,0.00,VWS V14.01,2013-03-03 13:50:00,
2013-03-03 04:52:00,18.7,9.2,30.01,SSW,204,2.0,3.0,66,0.00,,---,0.00,VWS V14.01,2013-03-03 13:52:00,
2013-03-03 04:53:00,18.5,9.1,30.01,SSW,204,2.0,3.0,66,0.00,,---,0.00,VWS V14.01,2013-03-03 13:53:00,
2013-03-03 04:55:00,18.2,9.1,30.01,SSW,212,3.0,4.0,67,0.00,,---,0.00,VWS V14.01,2013-03-03 13:55:00,
2013-03-03 04:57:00,18.1,8.7,30.01,SW,221,3.0,3.0,66,0.00,,---,0.00,VWS V14.01,2013-03-03 13:57:00,
2013-03-03 04:58:00,18.1,8.7,30.01,SW,221,3.0,3.0,66,0.00,,---,0.00,VWS V14.01,2013-03-03 13:58:00,
2013-03-03 05:00:00,16.8,9.7,30.01,ESE,123,6.0,6.0,73,0.00,,---,0.00,VWS V14.01,2013-03-03 14:00:00,
2013-03-03 05:02:00,16.8,9.7,30.01,SE,128,4.0,4.0,73,0.00,,---,0.00,VWS V14.01,2013-03-03 14:02:00,
2013-03-03 05:03:00,16.8,9.7,30.01,SE,128,0.0,4.0,73,0.00,,---,0.00,VWS V14.01,2013-03-03 14:03:00,
2013-03-03 05:05:00,16.8,9.7,30.02,SE,128,4.0,5.0,73,0.00,,---,0.00,VWS V14.01,2013-03-03 14:05:00,
2013-03-03 05:07:00,16.8,9.7,30.02,SE,128,2.0,4.0,73,0.00,,---,0.00,VWS V14.01,2013-03-03 14:07:00,
2013-03-03 05:08:00,16.8,9.7,30.02,SE,128,0.0,4.0,73,0.00,,---,0.00,VWS V14.01,2013-03-03 14:08:00,
2013-03-03 05:10:00,16.7,9.6,30.02,SE,128,0.0,4.0,73,0.00,,---,0.00,VWS V14.01,2013-03-03 14:10:00,
2013-03-03 05:12:00,16.6,9.5,30.01,SE,128,0.0,1.0,73,0.00,,---,0.00,VWS V14.01,2013-03-03 14:12:00,
2013-03-03 05:13:00,16.6,9.5,30.02,SE,128,0.0,1.0,73,0.00,,---,0.00,VWS V14.01,2013-03-03 14:13:00,
2013-03-03 05:15:00,16.7,9.9,30.02,SE,128,4.0,5.0,74,0.00,,---,0.00,VWS V14.01,2013-03-03 14:15:00,
2013-03-03 05:18:00,16.8,10.0,30.02,SE,128,0.0,0.0,74,0.00,,---,0.00,VWS V14.01,2013-03-03 14:18:00,
2013-03-03 05:19:00,16.8,10.0,30.02,SE,128,0.0,0.0,74,0.00,,---,0.00,VWS V14.01,2013-03-03 14:19:00,
2013-03-03 05:21:00,16.9,10.1,30.02,SE,128,2.0,2.0,74,0.00,,---,0.00,VWS V14.01,2013-03-03 14:21:00,
2013-03-03 05:23:00,16.9,10.1,30.02,SE,128,4.0,4.0,74,0.00,,---,0.00,VWS V14.01,2013-03-03 14:23:00,
2013-03-03 05:24:00,16.9,10.1,30.02,SE,128,2.0,4.0,74,0.00,,---,0.00,VWS V14.01,2013-03-03 14:24:00,
2013-03-03 05:26:00,17.0,10.2,30.02,SE,128,0.0,4.0,74,0.00,,---,0.00,VWS V14.01,2013-03-03 14:26:00,
2013-03-03 05:28:00,17.0,10.2,30.02,SE,128,4.0,5.0,74,0.00,,---,0.00,VWS V14.01,2013-03-03 14:28:00,
2013-03-03 05:29:00,17.0,10.2,30.01,SE,128,0.0,5.0,74,0.00,,---,0.00,VWS V14.01,2013-03-03 14:29:00,
2013-03-03 05:31:00,17.2,10.6,30.01,SE,128,0.0,5.0,75,0.00,,---,0.00,VWS V14.01,2013-03-03 14:31:00,
2013-03-03 05:33:00,17.4,10.9,30.01,SE,128,0.0,2.0,75,0.00,,---,0.00,VWS V14.01,2013-03-03 14:33:00,
2013-03-03 05:34:00,17.5,10.9,30.01,SE,128,0.0,2.0,75,0.00,,---,0.00,VWS V14.01,2013-03-03 14:34:00,
2013-03-03 05:36:00,17.6,10.7,30.01,SE,128,2.0,2.0,74,0.00,,---,0.00,VWS V14.01,2013-03-03 14:36:00,
2013-03-03 05:38:00,17.7,10.8,30.02,SE,128,2.0,4.0,74,0.00,,---,0.00,VWS V14.01,2013-03-03 14:38:00,
2013-03-03 05:39:00,17.7,10.8,30.02,SE,128,0.0,4.0,74,0.00,,---,0.00,VWS V14.01,2013-03-03 14:39:00,
2013-03-03 05:41:00,17.8,10.9,30.01,SE,128,0.0,4.0,74,0.00,,---,0.00,VWS V14.01,2013-03-03 14:41:00,
2013-03-03 05:43:00,17.9,11.0,30.02,SE,128,0.0,2.0,74,0.00,,---,0.00,VWS V14.01,2013-03-03 14:43:00,
2013-03-03 05:44:00,18.7,11.8,30.02,South,186,2.0,2.0,74,0.00,,---,0.00,VWS V14.01,2013-03-03 14:44:00,
2013-03-03 05:46:00,18.8,10.3,30.02,SSW,213,2.0,5.0,69,0.00,,---,0.00,VWS V14.01,2013-03-03 14:46:00,
2013-03-03 05:48:00,18.9,10.4,30.02,SSW,205,3.0,3.0,69,0.00,,---,0.00,VWS V14.01,2013-03-03 14:48:00,
2013-03-03 05:49:00,19.0,10.5,30.02,SSW,198,5.0,6.0,69,0.00,,---,0.00,VWS V14.01,2013-03-03 14:49:00,
2013-03-03 05:51:00,19.2,10.4,30.02,SSW,207,4.0,6.0,68,0.00,,---,0.00,VWS V14.01,2013-03-03 14:51:00,
2013-03-03 05:53:00,19.3,10.5,30.02,SSW,202,3.0,4.0,68,0.00,,---,0.00,VWS V14.01,2013-03-03 14:53:00,
2013-03-03 05:54:00,19.4,10.2,30.02,SSW,198,3.0,4.0,67,0.00,,---,0.00,VWS V14.01,2013-03-03 14:54:00,
2013-03-03 05:56:00,19.4,10.6,30.02,SSW,198,1.0,4.0,68,0.00,,---,0.00,VWS V14.01,2013-03-03 14:56:00,
2013-03-03 05:58:00,19.4,10.6,30.02,SSE,163,2.0,3.0,68,0.00,,---,0.00,VWS V14.01,2013-03-03 14:58:00,
2013-03-03 05:59:00,19.5,10.3,30.02,South,183,2.0,3.0,67,0.00,,---,0.00,VWS V14.01,2013-03-03 14:59:00,
2013-03-03 06:02:00,19.6,10.4,30.03,SSE,148,1.0,2.0,67,0.00,,---,0.00,VWS V14.01,2013-03-03 15:02:00,
2013-03-03 06:03:00,19.6,10.4,30.03,SE,134,4.0,5.0,67,0.00,,---,0.00,VWS V14.01,2013-03-03 15:03:00,
2013-03-03 06:04:00,19.6,10.4,30.03,SE,134,2.0,5.0,67,0.00,,---,0.00,VWS V14.01,2013-03-03 15:04:00,
2013-03-03 06:07:00,19.8,10.6,30.03,SSE,149,5.0,5.0,67,0.00,,---,0.00,VWS V14.01,2013-03-03 15:07:00,
2013-03-03 06:08:00,19.8,10.6,30.03,SSE,161,2.0,5.0,67,0.00,,---,0.00,VWS V14.01,2013-03-03 15:08:00,
2013-03-03 06:09:00,19.9,10.7,30.03,South,175,2.0,5.0,67,0.00,,---,0.00,VWS V14.01,2013-03-03 15:09:00,
2013-03-03 06:12:00,20.0,10.8,30.03,South,172,2.0,4.0,67,0.00,,---,0.00,VWS V14.01,2013-03-03 15:12:00,
2013-03-03 06:13:00,20.0,10.8,30.03,South,171,2.0,4.0,67,0.00,,---,0.00,VWS V14.01,2013-03-03 15:13:00,
2013-03-03 06:15:00,20.0,10.8,30.03,South,187,2.0,4.0,67,0.00,,---,0.00,VWS V14.01,2013-03-03 15:15:00,
2013-03-03 06:18:00,20.0,10.5,30.03,SSW,192,2.0,3.0,66,0.00,,---,0.00,VWS V14.01,2013-03-03 15:18:00,
2013-03-03 06:20:00,19.9,10.4,30.03,SSW,192,1.0,3.0,66,0.00,,---,0.00,VWS V14.01,2013-03-03 15:20:00,
2013-03-03 06:23:00,19.8,10.6,30.03,SSE,168,1.0,4.0,67,0.00,,---,0.00,VWS V14.01,2013-03-03 15:23:00,
2013-03-03 06:25:00,19.7,10.5,30.03,SSW,203,3.0,4.0,67,0.00,,---,0.00,VWS V14.01,2013-03-03 15:25:00,
2013-03-03 06:26:00,19.6,10.8,30.03,SSW,193,3.0,4.0,68,0.00,,---,0.00,VWS V14.01,2013-03-03 15:26:00,
2013-03-03 06:28:00,19.5,10.7,30.03,South,177,2.0,5.0,68,0.00,,---,0.00,VWS V14.01,2013-03-03 15:28:00,
2013-03-03 06:29:00,19.5,10.7,30.04,South,182,5.0,5.0,68,0.00,,---,0.00,VWS V14.01,2013-03-03 15:29:00,
2013-03-03 06:30:00,19.5,10.7,30.04,SSW,195,1.0,5.0,68,0.00,,---,0.00,VWS V14.01,2013-03-03 15:30:00,
2013-03-03 06:31:00,19.4,10.6,30.04,South,177,4.0,5.0,68,0.00,,---,0.00,VWS V14.01,2013-03-03 15:31:00,
2013-03-03 06:33:00,19.4,10.6,30.04,SSW,197,4.0,4.0,68,0.00,,---,0.00,VWS V14.01,2013-03-03 15:33:00,
2013-03-03 06:34:00,19.3,10.5,30.04,South,191,4.0,6.0,68,0.00,,---,0.00,VWS V14.01,2013-03-03 15:34:00,
2013-03-03 06:35:00,19.3,10.8,30.04,South,169,2.0,6.0,69,0.00,,---,0.00,VWS V14.01,2013-03-03 15:35:00,
2013-03-03 06:37:00,18.9,11.4,30.04,SSE,155,5.0,5.0,72,0.00,,---,0.00,VWS V14.01,2013-03-03 15:37:00,
2013-03-03 06:39:00,18.8,11.6,30.04,SSE,155,2.0,5.0,73,0.00,,---,0.00,VWS V14.01,2013-03-03 15:39:00,
2013-03-03 06:41:00,18.7,11.5,30.04,SSE,155,1.0,5.0,73,0.00,,---,0.00,VWS V14.01,2013-03-03 15:41:00,
2013-03-03 06:42:00,18.6,11.4,30.04,SSE,155,4.0,4.0,73,0.00,,---,0.00,VWS V14.01,2013-03-03 15:42:00,
2013-03-03 06:44:00,18.5,11.6,30.04,SSE,155,2.0,4.0,74,0.00,,---,0.00,VWS V14.01,2013-03-03 15:44:00,
2013-03-03 06:46:00,18.3,11.4,30.04,SSE,155,2.0,4.0,74,0.00,,---,0.00,VWS V14.01,2013-03-03 15:46:00,
2013-03-03 06:47:00,18.2,11.3,30.04,SSE,155,2.0,4.0,74,0.00,,---,0.00,VWS V14.01,2013-03-03 15:47:00,
2013-03-03 06:49:00,18.0,11.4,30.04,SSE,155,2.0,4.0,75,0.00,,---,0.00,VWS V14.01,2013-03-03 15:49:00,
2013-03-03 06:52:00,17.8,11.2,30.04,SSE,155,2.0,4.0,75,0.00,,---,0.00,VWS V14.01,2013-03-03 15:52:00,
2013-03-03 06:54:00,17.6,11.3,30.04,SSE,155,1.0,2.0,76,0.00,,---,0.00,VWS V14.01,2013-03-03 15:54:00,
2013-03-03 06:57:00,17.6,11.3,30.04,SSE,155,0.0,0.0,76,0.00,,---,0.00,VWS V14.01,2013-03-03 15:57:00,
2013-03-03 06:59:00,17.7,11.7,30.04,SSE,155,2.0,6.0,77,0.00,,---,0.00,VWS V14.01,2013-03-03 15:59:00,
2013-03-03 07:00:00,17.7,11.7,30.04,SSE,155,2.0,6.0,77,0.00,,---,0.00,VWS V14.01,2013-03-03 16:00:00,
2013-03-03 07:02:00,17.9,11.6,30.04,SSE,155,1.0,4.0,76,0.00,,---,0.00,VWS V14.01,2013-03-03 16:02:00,
2013-03-03 07:04:00,18.1,11.8,30.04,SSE,155,0.0,4.0,76,0.00,,---,0.00,VWS V14.01,2013-03-03 16:04:00,
2013-03-03 07:05:00,18.1,11.8,30.04,SSE,155,2.0,4.0,76,0.00,,---,0.00,VWS V14.01,2013-03-03 16:05:00,
2013-03-03 07:07:00,18.1,11.8,30.04,SSE,155,2.0,2.0,76,0.00,,---,0.00,VWS V14.01,2013-03-03 16:07:00,
2013-03-03 07:09:00,18.1,11.5,30.04,SSE,155,0.0,4.0,75,0.00,,---,0.00,VWS V14.01,2013-03-03 16:09:00,
2013-03-03 07:10:00,18.0,11.4,30.04,SSE,155,2.0,4.0,75,0.00,,---,0.00,VWS V14.01,2013-03-03 16:10:00,
2013-03-03 07:12:00,17.9,11.3,30.04,SSE,155,0.0,0.0,75,0.00,,---,0.00,VWS V14.01,2013-03-03 16:12:00,
2013-03-03 07:13:00,17.9,11.3,30.04,SSE,155,0.0,1.0,75,0.00,,---,0.00,VWS V14.01,2013-03-03 16:13:00,
2013-03-03 07:14:00,17.8,11.2,30.04,SSE,155,0.0,2.0,75,0.00,,---,0.00,VWS V14.01,2013-03-03 16:14:00,
2013-03-03 07:15:00,17.7,11.1,30.04,SSE,155,0.0,2.0,75,0.00,,---,0.00,VWS V14.01,2013-03-03 16:15:00,
2013-03-03 07:17:00,17.5,11.2,30.04,SSE,155,0.0,0.0,76,0.00,,---,0.00,VWS V14.01,2013-03-03 16:17:00,
2013-03-03 07:18:00,17.5,11.2,30.04,SSE,155,0.0,0.0,76,0.00,,---,0.00,VWS V14.01,2013-03-03 16:18:00,
2013-03-03 07:19:00,17.3,11.1,30.04,SSE,155,1.0,1.0,76,0.00,,---,0.00,VWS V14.01,2013-03-03 16:19:00,
2013-03-03 07:20:00,17.2,10.9,30.04,SSE,155,0.0,1.0,76,0.00,,---,0.00,VWS V14.01,2013-03-03 16:20:00,
2013-03-03 07:23:00,17.1,10.9,30.05,SSE,155,0.0,0.0,76,0.00,,---,0.00,VWS V14.01,2013-03-03 16:23:00,
2013-03-03 07:24:00,17.0,11.1,30.05,SSE,155,0.0,0.0,77,0.00,,---,0.00,VWS V14.01,2013-03-03 16:24:00,
2013-03-03 07:25:00,16.9,10.9,30.04,SSE,155,0.0,0.0,77,0.00,,---,0.00,VWS V14.01,2013-03-03 16:25:00,
2013-03-03 07:28:00,16.8,10.9,30.04,SSE,155,0.0,0.0,77,0.00,,---,0.00,VWS V14.01,2013-03-03 16:28:00,
2013-03-03 07:29:00,16.7,10.8,30.05,SSE,155,0.0,0.0,77,0.00,,---,0.00,VWS V14.01,2013-03-03 16:29:00,
2013-03-03 07:30:00,16.7,10.8,30.05,SSE,155,0.0,0.0,77,0.00,,---,0.00,VWS V14.01,2013-03-03 16:30:00,
2013-03-03 07:33:00,16.6,10.7,30.05,SSE,155,0.0,2.0,77,0.00,,---,0.00,VWS V14.01,2013-03-03 16:33:00,
2013-03-03 07:35:00,16.5,10.9,30.05,SSE,155,2.0,5.0,78,0.00,,---,0.00,VWS V14.01,2013-03-03 16:35:00,
2013-03-03 07:38:00,16.3,10.7,30.05,SSE,155,0.0,1.0,78,0.00,,---,0.00,VWS V14.01,2013-03-03 16:38:00,
2013-03-03 07:40:00,16.1,10.5,30.05,SSE,155,0.0,1.0,78,0.00,,---,0.00,VWS V14.01,2013-03-03 16:40:00,
2013-03-03 07:43:00,15.8,10.2,30.05,SSE,155,0.0,0.0,78,0.00,,---,0.00,VWS V14.01,2013-03-03 16:43:00,
2013-03-03 07:44:00,15.7,10.1,30.05,SSE,155,0.0,0.0,78,0.00,,---,0.00,VWS V14.01,2013-03-03 16:44:00,
2013-03-03 07:45:00,15.6,10.0,30.05,SSE,155,0.0,0.0,78,0.00,,---,0.00,VWS V14.01,2013-03-03 16:45:00,
2013-03-03 07:46:00,15.5,9.9,30.05,SSE,155,0.0,0.0,78,0.00,,---,0.00,VWS V14.01,2013-03-03 16:46:00,
2013-03-03 07:48:00,15.2,9.3,30.05,SSE,155,2.0,2.0,77,0.00,,---,0.00,VWS V14.01,2013-03-03 16:48:00,
2013-03-03 07:49:00,15.1,9.2,30.05,SSE,155,0.0,2.0,77,0.00,,---,0.00,VWS V14.01,2013-03-03 16:49:00,
2013-03-03 07:50:00,15.0,9.1,30.05,SSE,155,4.0,4.0,77,0.00,,---,0.00,VWS V14.01,2013-03-03 16:50:00,
2013-03-03 07:51:00,14.9,9.3,30.05,SSE,155,1.0,4.0,78,0.00,,---,0.00,VWS V14.01,2013-03-03 16:51:00,
2013-03-03 07:54:00,14.4,8.8,30.05,SSE,155,0.0,0.0,78,0.00,,---,0.00,VWS V14.01,2013-03-03 16:54:00,
2013-03-03 07:55:00,14.3,8.7,30.05,SSE,155,1.0,2.0,78,0.00,,---,0.00,VWS V14.01,2013-03-03 16:55:00,
2013-03-03 07:56:00,14.1,8.5,30.05,SSE,155,4.0,4.0,78,0.00,,---,0.00,VWS V14.01,2013-03-03 16:56:00,
2013-03-03 07:59:00,13.6,8.0,30.05,SSE,155,2.0,4.0,78,0.00,,---,0.00,VWS V14.01,2013-03-03 16:59:00,
2013-03-03 08:00:00,13.5,7.9,30.05,SSE,155,2.0,4.0,78,0.00,,---,0.00,VWS V14.01,2013-03-03 17:00:00,
2013-03-03 08:01:00,13.2,7.9,30.05,SSE,155,2.0,4.0,79,0.00,,---,0.00,VWS V14.01,2013-03-03 17:01:00,
2013-03-03 08:04:00,12.8,7.5,30.05,SSE,155,1.0,5.0,79,0.00,,---,0.00,VWS V14.01,2013-03-03 17:04:00,
2013-03-03 08:05:00,12.8,7.5,30.05,SSE,155,2.0,5.0,79,0.00,,---,0.00,VWS V14.01,2013-03-03 17:05:00,
2013-03-03 08:06:00,12.6,7.6,30.05,SSE,155,2.0,5.0,80,0.00,,---,0.00,VWS V14.01,2013-03-03 17:06:00,
2013-03-03 08:09:00,12.4,7.4,30.05,SSE,155,0.0,2.0,80,0.00,,---,0.00,VWS V14.01,2013-03-03 17:09:00,
2013-03-03 08:10:00,12.3,7.3,30.05,SSE,155,0.0,2.0,80,0.00,,---,0.00,VWS V14.01,2013-03-03 17:10:00,
2013-03-03 08:11:00,12.2,7.2,30.05,SSE,155,0.0,2.0,80,0.00,,---,0.00,VWS V14.01,2013-03-03 17:11:00,
2013-03-03 08:12:00,12.2,6.9,30.05,SSE,155,0.0,2.0,79,0.00,,---,0.00,VWS V14.01,2013-03-03 17:12:00,
2013-03-03 08:14:00,11.9,6.9,30.05,SSE,155,0.0,0.0,80,0.00,,---,0.00,VWS V14.01,2013-03-03 17:14:00,
2013-03-03 08:15:00,11.8,6.8,30.05,SSE,155,0.0,0.0,80,0.00,,---,0.00,VWS V14.01,2013-03-03 17:15:00,
2013-03-03 08:16:00,11.7,6.7,30.05,SSE,155,0.0,0.0,80,0.00,,---,0.00,VWS V14.01,2013-03-03 17:16:00,
2013-03-03 08:17:00,11.7,6.7,30.05,SSE,155,2.0,2.0,80,0.00,,---,0.00,VWS V14.01,2013-03-03 17:17:00,
2013-03-03 08:19:00,11.4,6.7,30.05,SSE,155,2.0,4.0,81,0.00,,---,0.00,VWS V14.01,2013-03-03 17:19:00,
2013-03-03 08:20:00,11.4,6.7,30.05,SSE,155,1.0,4.0,81,0.00,,---,0.00,VWS V14.01,2013-03-03 17:20:00,
2013-03-03 08:21:00,11.4,6.7,30.05,SSE,155,0.0,4.0,81,0.00,,---,0.00,VWS V14.01,2013-03-03 17:21:00,
2013-03-03 08:22:00,11.3,6.6,30.06,SSE,155,0.0,0.0,81,0.00,,---,0.00,VWS V14.01,2013-03-03 17:22:00,
2013-03-03 08:25:00,11.1,6.4,30.05,SSE,155,0.0,0.0,81,0.00,,---,0.00,VWS V14.01,2013-03-03 17:25:00,
2013-03-03 08:26:00,10.9,6.2,30.06,SSE,155,0.0,0.0,81,0.00,,---,0.00,VWS V14.01,2013-03-03 17:26:00,
2013-03-03 08:27:00,10.9,6.2,30.06,SSE,155,0.0,0.0,81,0.00,,---,0.00,VWS V14.01,2013-03-03 17:27:00,
2013-03-03 08:30:00,10.8,6.1,30.06,SSE,155,2.0,5.0,81,0.00,,---,0.00,VWS V14.01,2013-03-03 17:30:00,
2013-03-03 08:31:00,10.7,6.0,30.06,SSE,155,4.0,5.0,81,0.00,,---,0.00,VWS V14.01,2013-03-03 17:31:00,
2013-03-03 08:32:00,10.7,6.0,30.06,SSE,155,0.0,1.0,81,0.00,,---,0.00,VWS V14.01,2013-03-03 17:32:00,
2013-03-03 08:35:00,10.5,5.8,30.06,SSE,155,4.0,5.0,81,0.00,,---,0.00,VWS V14.01,2013-03-03 17:35:00,
2013-03-03 08:36:00,10.5,6.1,30.06,SSE,155,4.0,5.0,82,0.00,,---,0.00,VWS V14.01,2013-03-03 17:36:00,
2013-03-03 08:37:00,10.5,6.1,30.06,SSE,155,4.0,5.0,82,0.00,,---,0.00,VWS V14.01,2013-03-03 17:37:00,
2013-03-03 08:40:00,10.5,6.1,30.06,SSE,155,4.0,7.0,82,0.00,,---,0.00,VWS V14.01,2013-03-03 17:40:00,
2013-03-03 08:41:00,10.6,6.5,30.06,SSE,155,5.0,7.0,83,0.00,,---,0.00,VWS V14.01,2013-03-03 17:41:00,
2013-03-03 08:42:00,10.6,6.5,30.06,SSE,155,4.0,7.0,83,0.00,,---,0.00,VWS V14.01,2013-03-03 17:42:00,
2013-03-03 08:46:00,10.7,6.6,30.06,SE,145,2.0,7.0,83,0.00,,---,0.00,VWS V14.01,2013-03-03 17:46:00,
2013-03-03 08:47:00,10.8,6.4,30.06,SE,145,4.0,5.0,82,0.00,,---,0.00,VWS V14.01,2013-03-03 17:47:00,
2013-03-03 08:51:00,11.2,6.0,30.06,ESE,123,2.0,5.0,79,0.00,,---,0.00,VWS V14.01,2013-03-03 17:51:00,
2013-03-03 08:52:00,11.2,6.0,30.06,ESE,123,1.0,2.0,79,0.00,,---,0.00,VWS V14.01,2013-03-03 17:52:00,
2013-03-03 08:56:00,11.2,5.7,30.06,SE,126,0.0,4.0,78,0.00,,---,0.00,VWS V14.01,2013-03-03 17:56:00,
2013-03-03 08:57:00,11.2,5.7,30.06,SE,126,1.0,2.0,78,0.00,,---,0.00,VWS V14.01,2013-03-03 17:57:00,
2013-03-03 09:01:00,11.0,5.5,30.06,SE,126,0.0,2.0,78,0.00,,---,0.00,VWS V14.01,2013-03-03 18:01:00,
2013-03-03 09:02:00,11.0,5.5,30.06,SE,126,0.0,1.0,78,0.00,,---,0.00,VWS V14.01,2013-03-03 18:02:00,
2013-03-03 09:03:00,11.0,5.5,30.06,SE,126,1.0,1.0,78,0.00,,---,0.00,VWS V14.01,2013-03-03 18:03:00,
2013-03-03 09:06:00,10.6,5.1,30.07,SE,126,0.0,1.0,78,0.00,,---,0.00,VWS V14.01,2013-03-03 18:06:00,
2013-03-03 09:07:00,10.6,5.1,30.07,SE,126,0.0,0.0,78,0.00,,---,0.00,VWS V14.01,2013-03-03 18:07:00,
2013-03-03 09:08:00,10.4,4.9,30.07,SE,126,0.0,0.0,78,0.00,,---,0.00,VWS V14.01,2013-03-03 18:08:00,
2013-03-03 09:12:00,10.3,5.4,30.06,SE,126,0.0,0.0,80,0.00,,---,0.00,VWS V14.01,2013-03-03 18:12:00,
2013-03-03 09:13:00,10.2,5.3,30.07,SSE,148,2.0,2.0,80,0.00,,---,0.00,VWS V14.01,2013-03-03 18:13:00,
2013-03-03 09:17:00,10.3,5.6,30.07,SSW,209,3.0,3.0,81,0.00,,---,0.00,VWS V14.01,2013-03-03 18:17:00,
2013-03-03 09:18:00,10.2,5.5,30.07,SW,225,3.0,3.0,81,0.00,,---,0.00,VWS V14.01,2013-03-03 18:18:00,
2013-03-03 09:22:00,10.0,5.6,30.07,SE,145,2.0,5.0,82,0.00,,---,0.00,VWS V14.01,2013-03-03 18:22:00,
2013-03-03 09:23:00,9.9,5.5,30.07,SE,145,2.0,5.0,82,0.00,,---,0.00,VWS V14.01,2013-03-03 18:23:00,
2013-03-03 09:27:00,9.8,5.7,30.07,SE,145,1.0,4.0,83,0.00,,---,0.00,VWS V14.01,2013-03-03 18:27:00,
2013-03-03 09:28:00,9.7,5.6,30.07,SE,145,1.0,4.0,83,0.00,,---,0.00,VWS V14.01,2013-03-03 18:28:00,
2013-03-03 09:29:00,9.6,5.2,30.07,SE,145,0.0,4.0,82,0.00,,---,0.00,VWS V14.01,2013-03-03 18:29:00,
2013-03-03 09:32:00,9.4,5.3,30.08,SE,145,2.0,2.0,83,0.00,,---,0.00,VWS V14.01,2013-03-03 18:32:00,
2013-03-03 09:33:00,9.4,5.3,30.08,SE,145,4.0,4.0,83,0.00,,---,0.00,VWS V14.01,2013-03-03 18:33:00,
2013-03-03 09:34:00,9.3,4.9,30.08,SE,145,2.0,4.0,82,0.00,,---,0.00,VWS V14.01,2013-03-03 18:34:00,
2013-03-03 09:37:00,9.1,5.0,30.08,SE,145,2.0,2.0,83,0.00,,---,0.00,VWS V14.01,2013-03-03 18:37:00,
2013-03-03 09:38:00,9.0,4.9,30.08,SE,145,0.0,4.0,83,0.00,,---,0.00,VWS V14.01,2013-03-03 18:38:00,
2013-03-03 09:39:00,9.0,4.9,30.08,SE,145,0.0,4.0,83,0.00,,---,0.00,VWS V14.01,2013-03-03 18:39:00,
2013-03-03 09:42:00,8.9,4.8,30.08,SE,145,2.0,2.0,83,0.00,,---,0.00,VWS V14.01,2013-03-03 18:42:00,
2013-03-03 09:43:00,8.9,4.8,30.08,SE,145,2.0,2.0,83,0.00,,---,0.00,VWS V14.01,2013-03-03 18:43:00,
2013-03-03 09:44:00,8.9,5.1,30.08,SE,145,0.0,2.0,84,0.00,,---,0.00,VWS V14.01,2013-03-03 18:44:00,
2013-03-03 09:47:00,9.2,5.6,30.09,SE,145,0.0,1.0,85,0.00,,---,0.00,VWS V14.01,2013-03-03 18:47:00,
2013-03-03 09:48:00,9.4,5.8,30.09,SE,145,0.0,1.0,85,0.00,,---,0.00,VWS V14.01,2013-03-03 18:48:00,
2013-03-03 09:49:00,9.4,5.8,30.08,SE,145,0.0,1.0,85,0.00,,---,0.00,VWS V14.01,2013-03-03 18:49:00,
2013-03-03 09:52:00,9.8,6.5,30.08,SE,145,0.0,0.0,86,0.00,,---,0.00,VWS V14.01,2013-03-03 18:52:00,
2013-03-03 09:53:00,10.0,6.4,30.08,SE,145,0.0,0.0,85,0.00,,---,0.00,VWS V14.01,2013-03-03 18:53:00,
2013-03-03 09:54:00,10.0,6.4,30.08,SE,145,0.0,0.0,85,0.00,,---,0.00,VWS V14.01,2013-03-03 18:54:00,
2013-03-03 09:57:00,10.5,6.4,30.08,SSE,161,0.0,1.0,83,0.00,,---,0.00,VWS V14.01,2013-03-03 18:57:00,
2013-03-03 09:58:00,10.5,6.4,30.08,SSE,161,0.0,1.0,83,0.00,,---,0.00,VWS V14.01,2013-03-03 18:58:00,
2013-03-03 09:59:00,10.6,6.5,30.08,SSE,161,0.0,1.0,83,0.00,,---,0.00,VWS V14.01,2013-03-03 18:59:00,
2013-03-03 10:00:00,10.7,6.6,30.08,SSE,161,0.0,1.0,83,0.00,,---,0.00,VWS V14.01,2013-03-03 19:00:00,
2013-03-03 10:02:00,10.8,6.4,30.08,SSE,161,0.0,0.0,82,0.00,,---,0.00,VWS V14.01,2013-03-03 19:02:00,
2013-03-03 10:04:00,10.9,6.5,30.08,SSE,161,0.0,0.0,82,0.00,,---,0.00,VWS V14.01,2013-03-03 19:04:00,
2013-03-03 10:05:00,11.0,6.6,30.08,SSE,161,0.0,0.0,82,0.00,,---,0.00,VWS V14.01,2013-03-03 19:05:00,
2013-03-03 10:07:00,11.3,7.2,30.08,WSW,241,2.0,3.0,83,0.00,,---,0.00,VWS V14.01,2013-03-03 19:07:00,
2013-03-03 10:09:00,11.5,7.1,30.08,West,261,3.0,3.0,82,0.00,,---,0.00,VWS V14.01,2013-03-03 19:09:00,
2013-03-03 10:10:00,11.7,7.3,30.08,West,263,1.0,3.0,82,0.00,,---,0.00,VWS V14.01,2013-03-03 19:10:00,
2013-03-03 10:13:00,11.9,7.2,30.08,WSW,258,2.0,2.0,81,0.00,,---,0.00,VWS V14.01,2013-03-03 19:13:00,
2013-03-03 10:14:00,12.1,7.7,30.08,WSW,252,2.0,2.0,82,0.00,,---,0.00,VWS V14.01,2013-03-03 19:14:00,
2013-03-03 10:15:00,12.6,8.4,30.08,WSW,253,1.0,2.0,83,0.00,,---,0.00,VWS V14.01,2013-03-03 19:15:00,
2013-03-03 10:16:00,12.7,8.5,30.08,WSW,253,1.0,2.0,83,0.00,,---,0.00,VWS V14.01,2013-03-03 19:16:00,
2013-03-03 10:24:00,15.2,9.6,30.08,SSW,213,8.0,8.0,78,0.00,,---,0.00,VWS V14.01,2013-03-03 19:24:00,
2013-03-03 10:29:00,16.9,10.4,30.08,South,191,3.0,8.0,75,0.00,,---,0.00,VWS V14.01,2013-03-03 19:29:00,
2013-03-03 10:34:00,17.5,10.3,30.08,SSW,196,3.0,5.0,73,0.00,,---,0.00,VWS V14.01,2013-03-03 19:34:00,
2013-03-03 10:35:00,17.6,10.4,30.08,South,190,3.0,5.0,73,0.00,,---,0.00,VWS V14.01,2013-03-03 19:35:00,
2013-03-03 10:39:00,18.0,10.5,30.08,SSE,161,1.0,6.0,72,0.00,,---,0.00,VWS V14.01,2013-03-03 19:39:00,
2013-03-03 10:40:00,18.0,10.5,30.08,SSW,203,2.0,6.0,72,0.00,,---,0.00,VWS V14.01,2013-03-03 19:40:00,
2013-03-03 10:44:00,18.0,10.2,30.08,SSE,161,0.0,3.0,71,0.00,,---,0.00,VWS V14.01,2013-03-03 19:44:00,
2013-03-03 10:45:00,18.0,10.2,30.08,South,180,1.0,3.0,71,0.00,,---,0.00,VWS V14.01,2013-03-03 19:45:00,
2013-03-03 10:49:00,18.1,10.0,30.08,SW,227,1.0,4.0,70,0.00,,---,0.00,VWS V14.01,2013-03-03 19:49:00,
2013-03-03 10:50:00,18.1,10.0,30.08,SW,227,1.0,4.0,70,0.00,,---,0.00,VWS V14.01,2013-03-03 19:50:00,
2013-03-03 10:54:00,18.0,9.9,30.08,WSW,240,2.0,3.0,70,0.00,,---,0.00,VWS V14.01,2013-03-03 19:54:00,
2013-03-03 10:55:00,18.0,9.9,30.08,WSW,243,3.0,3.0,70,0.00,,---,0.00,VWS V14.01,2013-03-03 19:55:00,
2013-03-03 10:59:00,18.0,9.9,30.08,SW,225,2.0,4.0,70,0.00,,---,0.00,VWS V14.01,2013-03-03 19:59:00,
2013-03-03 11:00:00,18.0,9.9,30.08,SW,236,3.0,4.0,70,0.00,,---,0.00,VWS V14.01,2013-03-03 20:00:00,
2013-03-03 11:05:00,18.4,11.5,30.08,SE,146,0.0,3.0,74,0.00,,---,0.00,VWS V14.01,2013-03-03 20:05:00,
2013-03-03 11:10:00,18.7,11.5,30.08,South,178,2.0,7.0,73,0.00,,---,0.00,VWS V14.01,2013-03-03 20:10:00,
2013-03-03 11:11:00,18.8,11.6,30.08,SSE,167,4.0,8.0,73,0.00,,---,0.00,VWS V14.01,2013-03-03 20:11:00,
2013-03-03 11:15:00,19.0,11.8,30.08,ESE,105,1.0,7.0,73,0.00,,---,0.00,VWS V14.01,2013-03-03 20:15:00,
2013-03-03 11:16:00,19.0,11.5,30.08,ESE,106,0.0,7.0,72,0.00,,---,0.00,VWS V14.01,2013-03-03 20:16:00,
2013-03-03 11:20:00,19.2,11.7,30.09,SE,140,5.0,7.0,72,0.00,,---,0.00,VWS V14.01,2013-03-03 20:20:00,
2013-03-03 11:21:00,19.2,11.7,30.09,SE,140,7.0,7.0,72,0.00,,---,0.00,VWS V14.01,2013-03-03 20:21:00,
2013-03-03 11:25:00,19.3,11.8,30.09,SE,139,0.0,6.0,72,0.00,,---,0.00,VWS V14.01,2013-03-03 20:25:00,
2013-03-03 11:26:00,19.3,11.8,30.09,SE,139,0.0,6.0,72,0.00,,---,0.00,VWS V14.01,2013-03-03 20:26:00,
2013-03-03 11:30:00,19.4,11.6,30.09,SE,139,2.0,5.0,71,0.00,,---,0.00,VWS V14.01,2013-03-03 20:30:00,
2013-03-03 11:31:00,19.4,11.6,30.09,SE,139,2.0,5.0,71,0.00,,---,0.00,VWS V14.01,2013-03-03 20:31:00,
2013-03-03 11:35:00,19.6,11.7,30.09,SE,138,2.0,8.0,71,0.00,,---,0.00,VWS V14.01,2013-03-03 20:35:00,
2013-03-03 11:36:00,19.6,11.7,30.09,SE,138,1.0,8.0,71,0.00,,---,0.00,VWS V14.01,2013-03-03 20:36:00,
2013-03-03 11:41:00,19.6,11.7,30.09,SE,138,1.0,5.0,71,0.00,,---,0.00,VWS V14.01,2013-03-03 20:41:00,
2013-03-03 11:46:00,19.8,11.9,30.09,SE,138,4.0,6.0,71,0.00,,---,0.00,VWS V14.01,2013-03-03 20:46:00,
2013-03-03 11:51:00,20.0,11.8,30.09,SE,138,0.0,5.0,70,0.00,,---,0.00,VWS V14.01,2013-03-03 20:51:00,
2013-03-03 11:52:00,20.0,11.8,30.09,SE,138,0.0,0.0,70,0.00,,---,0.00,VWS V14.01,2013-03-03 20:52:00,
2013-03-03 11:56:00,20.2,12.0,30.09,SE,138,2.0,5.0,70,0.00,,---,0.00,VWS V14.01,2013-03-03 20:56:00,
2013-03-03 11:57:00,20.2,12.0,30.09,SE,135,2.0,4.0,70,0.00,,---,0.00,VWS V14.01,2013-03-03 20:57:00,
2013-03-03 12:01:00,20.1,11.9,30.09,SE,127,4.0,5.0,70,0.00,,---,0.00,VWS V14.01,2013-03-03 21:01:00,
2013-03-03 12:02:00,20.1,11.9,30.09,SE,127,0.0,2.0,70,0.00,,---,0.00,VWS V14.01,2013-03-03 21:02:00,
2013-03-03 12:03:00,20.1,11.9,30.09,SE,127,1.0,4.0,70,0.00,,---,0.00,VWS V14.01,2013-03-03 21:03:00,
2013-03-03 12:06:00,20.2,12.0,30.09,NNE,22,5.0,7.0,70,0.00,,---,0.00,VWS V14.01,2013-03-03 21:06:00,
2013-03-03 12:07:00,20.2,12.0,30.09,NE,36,4.0,4.0,70,0.00,,---,0.00,VWS V14.01,2013-03-03 21:07:00,
2013-03-03 12:08:00,20.2,12.0,30.09,NE,49,3.0,5.0,70,0.00,,---,0.00,VWS V14.01,2013-03-03 21:08:00,
2013-03-03 12:12:00,20.4,12.5,30.09,ENE,57,3.0,3.0,71,0.00,,---,0.00,VWS V14.01,2013-03-03 21:12:00,
2013-03-03 12:13:00,20.4,12.5,30.09,NE,42,6.0,8.0,71,0.00,,---,0.00,VWS V14.01,2013-03-03 21:13:00,
2013-03-03 12:17:00,20.3,12.4,30.10,NE,37,5.0,7.0,71,0.00,,---,0.00,VWS V14.01,2013-03-03 21:17:00,
2013-03-03 12:18:00,20.2,12.3,30.10,NNE,30,5.0,7.0,71,0.00,,---,0.00,VWS V14.01,2013-03-03 21:18:00,
2013-03-03 12:22:00,20.0,12.1,30.10,NE,51,2.0,3.0,71,0.00,,---,0.00,VWS V14.01,2013-03-03 21:22:00,
2013-03-03 12:23:00,20.0,12.1,30.10,NE,51,0.0,3.0,71,0.00,,---,0.00,VWS V14.01,2013-03-03 21:23:00,
2013-03-03 12:27:00,20.1,12.5,30.10,ENE,65,2.0,4.0,72,0.00,,---,0.00,VWS V14.01,2013-03-03 21:27:00,
2013-03-03 12:28:00,20.1,12.2,30.10,ENE,65,2.0,4.0,71,0.00,,---,0.00,VWS V14.01,2013-03-03 21:28:00,
2013-03-03 12:32:00,20.2,12.3,30.10,ENE,74,2.0,2.0,71,0.00,,---,0.00,VWS V14.01,2013-03-03 21:32:00,
2013-03-03 12:33:00,20.2,12.3,30.10,ENE,74,0.0,2.0,71,0.00,,---,0.00,VWS V14.01,2013-03-03 21:33:00,
2013-03-03 12:34:00,20.3,12.7,30.10,ENE,75,3.0,4.0,72,0.00,,---,0.00,VWS V14.01,2013-03-03 21:34:00,
2013-03-03 12:37:00,20.4,12.8,30.10,ENE,74,1.0,5.0,72,0.00,,---,0.00,VWS V14.01,2013-03-03 21:37:00,
2013-03-03 12:38:00,20.4,12.8,30.10,ENE,74,3.0,5.0,72,0.00,,---,0.00,VWS V14.01,2013-03-03 21:38:00,
2013-03-03 12:39:00,20.5,12.6,30.10,ENE,74,2.0,5.0,71,0.00,,---,0.00,VWS V14.01,2013-03-03 21:39:00,
2013-03-03 12:42:00,20.5,12.9,30.10,NE,53,6.0,7.0,72,0.00,,---,0.00,VWS V14.01,2013-03-03 21:42:00,
2013-03-03 12:43:00,20.5,12.9,30.10,NE,53,4.0,7.0,72,0.00,,---,0.00,VWS V14.01,2013-03-03 21:43:00,
2013-03-03 12:44:00,20.4,12.8,30.10,NE,41,5.0,8.0,72,0.00,,---,0.00,VWS V14.01,2013-03-03 21:44:00,
2013-03-03 12:48:00,20.4,12.8,30.10,NE,40,4.0,6.0,72,0.00,,---,0.00,VWS V14.01,2013-03-03 21:48:00,
2013-03-03 12:49:00,20.4,12.8,30.10,NE,55,3.0,8.0,72,0.00,,---,0.00,VWS V14.01,2013-03-03 21:49:00,
2013-03-03 12:53:00,20.4,12.8,30.10,NE,38,5.0,7.0,72,0.00,,---,0.00,VWS V14.01,2013-03-03 21:53:00,
2013-03-03 12:54:00,20.4,12.8,30.10,NNE,30,9.0,9.0,72,0.00,,---,0.00,VWS V14.01,2013-03-03 21:54:00,
2013-03-03 12:55:00,20.4,12.8,30.10,NE,38,4.0,9.0,72,0.00,,---,0.00,VWS V14.01,2013-03-03 21:55:00,
2013-03-03 12:58:00,20.4,12.8,30.10,NE,48,7.0,8.0,72,0.00,,---,0.00,VWS V14.01,2013-03-03 21:58:00,
2013-03-03 12:59:00,20.3,12.7,30.10,NE,47,6.0,8.0,72,0.00,,---,0.00,VWS V14.01,2013-03-03 21:59:00,
2013-03-03 13:00:00,20.3,12.7,30.10,NE,53,4.0,8.0,72,0.00,,---,0.00,VWS V14.01,2013-03-03 22:00:00,
2013-03-03 13:03:00,20.4,13.1,30.10,ENE,61,3.0,6.0,73,0.00,,---,0.00,VWS V14.01,2013-03-03 22:03:00,
2013-03-03 13:04:00,20.4,13.1,30.10,ENE,61,5.0,6.0,73,0.00,,---,0.00,VWS V14.01,2013-03-03 22:04:00,
2013-03-03 13:05:00,20.5,13.2,30.10,NE,54,5.0,6.0,73,0.00,,---,0.00,VWS V14.01,2013-03-03 22:05:00,
2013-03-03 13:08:00,20.7,13.4,30.10,ENE,65,5.0,6.0,73,0.00,,---,0.00,VWS V14.01,2013-03-03 22:08:00,
2013-03-03 13:09:00,20.7,13.4,30.10,ENE,63,8.0,8.0,73,0.00,,---,0.00,VWS V14.01,2013-03-03 22:09:00,
2013-03-03 13:10:00,20.7,13.4,30.10,ENE,67,6.0,8.0,73,0.00,,---,0.00,VWS V14.01,2013-03-03 22:10:00,
2013-03-03 13:13:00,20.7,13.4,30.10,ENE,69,7.0,8.0,73,0.00,,---,0.00,VWS V14.01,2013-03-03 22:13:00,
2013-03-03 13:14:00,20.7,13.4,30.10,NE,55,4.0,8.0,73,0.00,,---,0.00,VWS V14.01,2013-03-03 22:14:00,
2013-03-03 13:15:00,20.7,13.4,30.10,ENE,65,4.0,8.0,73,0.00,,---,0.00,VWS V14.01,2013-03-03 22:15:00,
2013-03-03 13:19:00,20.9,13.6,30.11,ENE,65,2.0,6.0,73,0.00,,---,0.00,VWS V14.01,2013-03-03 22:19:00,
2013-03-03 13:20:00,20.9,13.6,30.11,NNE,15,6.0,7.0,73,0.00,,---,0.00,VWS V14.01,2013-03-03 22:20:00,
2013-03-03 13:24:00,21.4,13.5,30.11,NNE,19,5.0,6.0,71,0.00,,---,0.00,VWS V14.01,2013-03-03 22:24:00,
2013-03-03 13:25:00,21.6,13.7,30.11,NE,34,6.0,7.0,71,0.00,,---,0.00,VWS V14.01,2013-03-03 22:25:00,
2013-03-03 13:29:00,21.8,13.5,30.11,NE,37,3.0,8.0,70,0.00,,---,0.00,VWS V14.01,2013-03-03 22:29:00,
2013-03-03 13:30:00,21.5,12.3,30.11,NE,42,7.0,8.0,67,0.00,,---,0.00,VWS V14.01,2013-03-03 22:30:00,
2013-03-03 13:31:00,21.6,12.4,30.11,NNE,32,6.0,8.0,67,0.00,,---,0.00,VWS V14.01,2013-03-03 22:31:00,
2013-03-03 13:34:00,21.5,11.9,30.11,NE,44,6.0,10.0,66,0.00,,---,0.00,VWS V14.01,2013-03-03 22:34:00,
2013-03-03 13:35:00,21.5,11.9,30.11,NNE,32,8.0,10.0,66,0.00,,---,0.00,VWS V14.01,2013-03-03 22:35:00,
2013-03-03 13:36:00,21.4,11.8,30.11,NNE,30,6.0,10.0,66,0.00,,---,0.00,VWS V14.01,2013-03-03 22:36:00,
2013-03-03 13:39:00,21.3,12.1,30.11,NE,36,8.0,10.0,67,0.00,,---,0.00,VWS V14.01,2013-03-03 22:39:00,
2013-03-03 13:40:00,21.3,12.1,30.11,NE,54,6.0,11.0,67,0.00,,---,0.00,VWS V14.01,2013-03-03 22:40:00,
2013-03-03 13:41:00,21.2,12.0,30.11,NE,45,8.0,11.0,67,0.00,,---,0.00,VWS V14.01,2013-03-03 22:41:00,
2013-03-03 13:44:00,21.1,12.2,30.11,ENE,70,8.0,10.0,68,0.00,,---,0.00,VWS V14.01,2013-03-03 22:44:00,
2013-03-03 13:45:00,21.0,12.1,30.11,ENE,71,6.0,10.0,68,0.00,,---,0.00,VWS V14.01,2013-03-03 22:45:00,
2013-03-03 13:46:00,21.0,11.8,30.11,NE,55,6.0,10.0,67,0.00,,---,0.00,VWS V14.01,2013-03-03 22:46:00,
2013-03-03 13:49:00,21.1,12.2,30.11,NE,45,4.0,10.0,68,0.00,,---,0.00,VWS V14.01,2013-03-03 22:49:00,
2013-03-03 13:50:00,21.1,12.2,30.11,NE,52,8.0,10.0,68,0.00,,---,0.00,VWS V14.01,2013-03-03 22:50:00,
2013-03-03 13:51:00,21.1,11.9,30.11,ENE,57,10.0,11.0,67,0.00,,---,0.00,VWS V14.01,2013-03-03 22:51:00,
2013-03-03 13:52:00,21.1,11.9,30.11,NE,52,7.0,7.0,67,0.00,,---,0.00,VWS V14.01,2013-03-03 22:52:00,
2013-03-03 13:54:00,21.0,12.1,30.11,NE,53,8.0,11.0,68,0.00,,---,0.00,VWS V14.01,2013-03-03 22:54:00,
2013-03-03 13:55:00,20.9,12.0,30.11,ENE,66,6.0,11.0,68,0.00,,---,0.00,VWS V14.01,2013-03-03 22:55:00,
2013-03-03 13:56:00,20.9,12.0,30.11,ENE,73,5.0,12.0,68,0.00,,---,0.00,VWS V14.01,2013-03-03 22:56:00,
2013-03-03 13:57:00,20.9,12.0,30.11,ENE,70,6.0,12.0,68,0.00,,---,0.00,VWS V14.01,2013-03-03 22:57:00,
2013-03-03 14:00:00,20.9,12.4,30.11,East,80,4.0,10.0,69,0.00,,---,0.00,VWS V14.01,2013-03-03 23:00:00,
2013-03-03 14:02:00,20.9,12.4,30.11,East,95,4.0,4.0,69,0.00,,---,0.00,VWS V14.01,2013-03-03 23:02:00,
2013-03-03 14:05:00,20.9,12.4,30.11,East,82,3.0,7.0,69,0.00,,---,0.00,VWS V14.01,2013-03-03 23:05:00,
2013-03-03 14:07:00,20.9,12.4,30.11,East,89,5.0,6.0,69,0.00,,---,0.00,VWS V14.01,2013-03-03 23:07:00,
2013-03-03 14:10:00,20.9,12.4,30.11,ENE,78,6.0,10.0,69,0.00,,---,0.00,VWS V14.01,2013-03-03 23:10:00,
2013-03-03 14:11:00,20.9,12.4,30.11,ENE,78,4.0,10.0,69,0.00,,---,0.00,VWS V14.01,2013-03-03 23:11:00,
2013-03-03 14:12:00,20.9,12.7,30.11,ESE,105,7.0,10.0,70,0.00,,---,0.00,VWS V14.01,2013-03-03 23:12:00,
2013-03-03 14:16:00,20.9,12.7,30.10,ENE,59,6.0,10.0,70,0.00,,---,0.00,VWS V14.01,2013-03-03 23:16:00,
2013-03-03 14:17:00,21.0,12.8,30.10,ENE,63,6.0,6.0,70,0.00,,---,0.00,VWS V14.01,2013-03-03 23:17:00,
2013-03-03 14:21:00,21.2,12.6,30.10,East,83,5.0,8.0,69,0.00,,---,0.00,VWS V14.01,2013-03-03 23:21:00,
2013-03-03 14:22:00,21.1,12.5,30.11,East,84,10.0,10.0,69,0.00,,---,0.00,VWS V14.01,2013-03-03 23:22:00,
2013-03-03 14:26:00,21.8,13.9,30.11,NNE,15,9.0,10.0,71,0.00,,---,0.00,VWS V14.01,2013-03-03 23:26:00,
2013-03-03 14:27:00,21.8,13.9,30.11,North,5,10.0,12.0,71,0.00,,---,0.00,VWS V14.01,2013-03-03 23:27:00,
2013-03-03 14:31:00,22.0,14.1,30.11,NNE,32,6.0,12.0,71,0.00,,---,0.00,VWS V14.01,2013-03-03 23:31:00,
2013-03-03 14:32:00,22.0,14.1,30.11,North,355,10.0,10.0,71,0.00,,---,0.00,VWS V14.01,2013-03-03 23:32:00,
2013-03-03 14:36:00,22.0,14.1,30.11,NNE,17,7.0,10.0,71,0.00,,---,0.00,VWS V14.01,2013-03-03 23:36:00,
2013-03-03 14:37:00,22.0,14.1,30.11,NNE,33,6.0,10.0,71,0.00,,---,0.00,VWS V14.01,2013-03-03 23:37:00,
2013-03-03 14:41:00,22.1,14.1,30.11,North,5,3.0,10.0,71,0.00,,---,0.00,VWS V14.01,2013-03-03 23:41:00,
2013-03-03 14:42:00,22.1,14.1,30.11,North,355,7.0,8.0,71,0.00,,---,0.00,VWS V14.01,2013-03-03 23:42:00,
2013-03-03 14:43:00,22.0,13.7,30.11,North,360,8.0,10.0,70,0.00,,---,0.00,VWS V14.01,2013-03-03 23:43:00,
2013-03-03 14:46:00,22.0,14.1,30.11,North,360,9.0,12.0,71,0.00,,---,0.00,VWS V14.01,2013-03-03 23:46:00,
2013-03-03 14:47:00,22.0,14.1,30.11,NNE,24,7.0,11.0,71,0.00,,---,0.00,VWS V14.01,2013-03-03 23:47:00,
2013-03-03 14:48:00,22.0,14.1,30.11,NNE,15,6.0,11.0,71,0.00,,---,0.00,VWS V14.01,2013-03-03 23:48:00,
2013-03-03 14:51:00,21.8,13.9,30.11,North,5,9.0,11.0,71,0.00,,---,0.00,VWS V14.01,2013-03-03 23:51:00,
2013-03-03 14:52:00,21.8,13.9,30.11,NNE,13,7.0,9.0,71,0.00,,---,0.00,VWS V14.01,2013-03-03 23:52:00,
2013-03-03 14:53:00,21.8,13.9,30.11,North,360,10.0,13.0,71,0.00,,---,0.00,VWS V14.01,2013-03-03 23:53:00,
2013-03-03 14:57:00,21.9,14.0,30.11,NW,311,7.0,7.0,71,0.00,,---,0.00,VWS V14.01,2013-03-03 23:57:00,
2013-03-03 14:58:00,22.0,14.1,30.11,North,11,6.0,10.0,71,0.00,,---,0.00,VWS V14.01,2013-03-03 23:58:00,
2013-03-03 15:02:00,22.0,14.1,30.11,North,355,11.0,11.0,71,0.00,,---,0.00,VWS V14.01,2013-03-04 00:02:00,
2013-03-03 15:03:00,22.0,14.1,30.11,North,5,6.0,11.0,71,0.00,,---,0.00,VWS V14.01,2013-03-04 00:03:00,
2013-03-03 15:04:00,22.0,14.1,30.11,NNE,17,8.0,11.0,71,0.00,,---,0.00,VWS V14.01,2013-03-04 00:04:00,
2013-03-03 15:07:00,22.2,13.9,30.11,NNE,19,5.0,9.0,70,0.00,,---,0.00,VWS V14.01,2013-03-04 00:07:00,
2013-03-03 15:08:00,22.3,14.0,30.11,NNE,14,7.0,9.0,70,0.00,,---,0.00,VWS V14.01,2013-03-04 00:08:00,
2013-03-03 15:09:00,22.3,14.0,30.11,NNE,14,4.0,9.0,70,0.00,,---,0.00,VWS V14.01,2013-03-04 00:09:00,
2013-03-03 15:13:00,22.4,14.1,30.11,NNE,19,2.0,2.0,70,0.00,,---,0.00,VWS V14.01,2013-03-04 00:13:00,
2013-03-03 15:14:00,22.5,14.2,30.11,NNE,18,4.0,5.0,70,0.00,,---,0.00,VWS V14.01,2013-03-04 00:14:00,
2013-03-03 15:18:00,22.6,14.0,30.11,NNE,18,3.0,4.0,69,0.00,,---,0.00,VWS V14.01,2013-03-04 00:18:00,
2013-03-03 15:19:00,22.6,14.0,30.11,NNE,18,2.0,4.0,69,0.00,,---,0.00,VWS V14.01,2013-03-04 00:19:00,
2013-03-03 15:20:00,22.6,13.6,30.11,NNE,18,0.0,4.0,68,0.00,,---,0.00,VWS V14.01,2013-03-04 00:20:00,
2013-03-03 15:24:00,22.8,13.8,30.11,NNE,18,0.0,2.0,68,0.00,,---,0.00,VWS V14.01,2013-03-04 00:24:00,
2013-03-03 15:25:00,22.9,13.9,30.11,NNE,18,0.0,2.0,68,0.00,,---,0.00,VWS V14.01,2013-03-04 00:25:00,
2013-03-03 15:29:00,23.2,13.9,30.11,NNE,18,3.0,3.0,67,0.00,,---,0.00,VWS V14.01,2013-03-04 00:29:00,
2013-03-03 15:30:00,23.2,13.9,30.11,NNE,18,3.0,3.0,67,0.00,,---,0.00,VWS V14.01,2013-03-04 00:30:00,
2013-03-03 15:34:00,23.3,14.0,30.11,NNE,18,0.0,1.0,67,0.00,,---,0.00,VWS V14.01,2013-03-04 00:34:00,
2013-03-03 15:35:00,23.3,14.0,30.11,NNE,18,0.0,2.0,67,0.00,,---,0.00,VWS V14.01,2013-03-04 00:35:00,
2013-03-03 15:39:00,23.6,14.6,30.11,NNW,344,1.0,4.0,68,0.00,,---,0.00,VWS V14.01,2013-03-04 00:39:00,
2013-03-03 15:40:00,23.6,14.6,30.11,NNW,336,2.0,4.0,68,0.00,,---,0.00,VWS V14.01,2013-03-04 00:40:00,
2013-03-03 15:44:00,23.9,14.6,30.11,NNW,336,1.0,3.0,67,0.00,,---,0.00,VWS V14.01,2013-03-04 00:44:00,
2013-03-03 15:45:00,23.9,14.6,30.11,NNW,334,4.0,4.0,67,0.00,,---,0.00,VWS V14.01,2013-03-04 00:45:00,
2013-03-03 15:46:00,23.9,14.6,30.11,NNW,334,0.0,4.0,67,0.00,,---,0.00,VWS V14.01,2013-03-04 00:46:00,
2013-03-03 15:50:00,24.1,14.7,30.11,NNW,334,0.0,0.0,67,0.00,,---,0.00,VWS V14.01,2013-03-04 00:50:00,
2013-03-03 15:51:00,24.2,14.8,30.11,NNW,334,0.0,0.0,67,0.00,,---,0.00,VWS V14.01,2013-03-04 00:51:00,
2013-03-03 15:55:00,24.5,14.8,30.11,NNW,333,0.0,3.0,66,0.00,,---,0.00,VWS V14.01,2013-03-04 00:55:00,
2013-03-03 15:56:00,24.6,14.9,30.11,NNW,333,0.0,3.0,66,0.00,,---,0.00,VWS V14.01,2013-03-04 00:56:00,
2013-03-03 16:00:00,24.4,14.3,30.11,NE,46,2.0,4.0,65,0.00,,---,0.00,VWS V14.01,2013-03-04 01:00:00,
2013-03-03 16:01:00,24.1,14.1,30.11,NE,55,0.0,5.0,65,0.00,,---,0.00,VWS V14.01,2013-03-04 01:01:00,
2013-03-03 16:05:00,23.5,14.2,30.11,NE,55,0.0,3.0,67,0.00,,---,0.00,VWS V14.01,2013-03-04 01:05:00,
2013-03-03 16:06:00,23.3,14.0,30.11,NE,55,0.0,3.0,67,0.00,,---,0.00,VWS V14.01,2013-03-04 01:06:00,
2013-03-03 16:10:00,23.2,14.2,30.11,NE,55,0.0,0.0,68,0.00,,---,0.00,VWS V14.01,2013-03-04 01:10:00,
2013-03-03 16:11:00,23.2,14.2,30.11,NE,55,0.0,0.0,68,0.00,,---,0.00,VWS V14.01,2013-03-04 01:11:00,
2013-03-03 16:15:00,23.5,14.5,30.11,North,360,3.0,7.0,68,0.00,,---,0.00,VWS V14.01,2013-03-04 01:15:00,
2013-03-03 16:16:00,23.5,14.2,30.11,North,360,2.0,7.0,67,0.00,,---,0.00,VWS V14.01,2013-03-04 01:16:00,
2013-03-03 16:20:00,23.6,14.3,30.11,North,349,2.0,5.0,67,0.00,,---,0.00,VWS V14.01,2013-03-04 01:20:00,
2013-03-03 16:21:00,23.7,14.4,30.11,North,349,0.0,5.0,67,0.00,,---,0.00,VWS V14.01,2013-03-04 01:21:00,
2013-03-03 16:22:00,23.7,14.4,30.11,North,349,0.0,0.0,67,0.00,,---,0.00,VWS V14.01,2013-03-04 01:22:00,
2013-03-03 16:26:00,23.7,14.4,30.11,NNW,329,8.0,11.0,67,0.00,,---,0.00,VWS V14.01,2013-03-04 01:26:00,
2013-03-03 16:27:00,23.6,14.3,30.11,NNW,328,7.0,8.0,67,0.00,,---,0.00,VWS V14.01,2013-03-04 01:27:00,
2013-03-03 16:31:00,23.3,14.3,30.11,NW,324,12.0,12.0,68,0.00,,---,0.00,VWS V14.01,2013-03-04 01:31:00,
2013-03-03 16:32:00,23.1,14.1,30.11,NNW,341,6.0,9.0,68,0.00,,---,0.00,VWS V14.01,2013-03-04 01:32:00,
2013-03-03 16:36:00,22.9,14.6,30.11,WNW,303,3.0,12.0,70,0.00,,---,0.00,VWS V14.01,2013-03-04 01:36:00,
2013-03-03 16:37:00,22.8,14.2,30.11,NW,312,3.0,5.0,69,0.00,,---,0.00,VWS V14.01,2013-03-04 01:37:00,
2013-03-03 16:41:00,22.7,14.4,30.12,NNW,345,5.0,12.0,70,0.00,,---,0.00,VWS V14.01,2013-03-04 01:41:00,
2013-03-03 16:42:00,22.6,14.3,30.12,North,5,5.0,6.0,70,0.00,,---,0.00,VWS V14.01,2013-03-04 01:42:00,
2013-03-03 16:46:00,22.6,14.3,30.12,NW,321,3.0,10.0,70,0.00,,---,0.00,VWS V14.01,2013-03-04 01:46:00,
2013-03-03 16:47:00,22.6,14.3,30.12,NNW,342,3.0,6.0,70,0.00,,---,0.00,VWS V14.01,2013-03-04 01:47:00,
2013-03-03 16:51:00,22.7,14.7,30.12,NNW,332,9.0,10.0,71,0.00,,---,0.00,VWS V14.01,2013-03-04 01:51:00,
2013-03-03 16:52:00,22.7,14.7,30.12,NNW,340,10.0,11.0,71,0.00,,---,0.00,VWS V14.01,2013-03-04 01:52:00,
2013-03-03 16:53:00,22.6,14.6,30.12,North,360,8.0,11.0,71,0.00,,---,0.00,VWS V14.01,2013-03-04 01:53:00,
2013-03-03 16:56:00,22.7,15.1,30.12,NNE,17,8.0,11.0,72,0.00,,---,0.00,VWS V14.01,2013-03-04 01:56:00,
2013-03-03 16:57:00,22.7,15.1,30.12,North,5,8.0,8.0,72,0.00,,---,0.00,VWS V14.01,2013-03-04 01:57:00,
2013-03-03 16:58:00,22.7,15.1,30.11,North,349,8.0,11.0,72,0.00,,---,0.00,VWS V14.01,2013-03-04 01:58:00,
2013-03-03 17:02:00,22.7,15.1,30.11,NNE,13,8.0,9.0,72,0.00,,---,0.00,VWS V14.01,2013-03-04 02:02:00,
2013-03-03 17:03:00,22.7,15.1,30.11,NNE,16,7.0,10.0,72,0.00,,---,0.00,VWS V14.01,2013-03-04 02:03:00,
2013-03-03 17:04:00,22.7,15.1,30.12,North,355,7.0,10.0,72,0.00,,---,0.00,VWS V14.01,2013-03-04 02:04:00,
2013-03-03 17:07:00,22.7,15.1,30.12,NNE,18,3.0,7.0,72,0.00,,---,0.00,VWS V14.01,2013-03-04 02:07:00,
2013-03-03 17:08:00,22.7,15.1,30.12,NNE,19,9.0,12.0,72,0.00,,---,0.00,VWS V14.01,2013-03-04 02:08:00,
2013-03-03 17:09:00,22.6,14.9,30.12,North,360,6.0,12.0,72,0.00,,---,0.00,VWS V14.01,2013-03-04 02:09:00,
2013-03-03 17:12:00,22.6,14.9,30.11,North,355,7.0,11.0,72,0.00,,---,0.00,VWS V14.01,2013-03-04 02:12:00,
2013-03-03 17:13:00,22.6,14.9,30.11,NNW,346,8.0,11.0,72,0.00,,---,0.00,VWS V14.01,2013-03-04 02:13:00,
2013-03-03 17:14:00,22.6,14.9,30.11,North,350,8.0,11.0,72,0.00,,---,0.00,VWS V14.01,2013-03-04 02:14:00,
2013-03-03 17:17:00,22.4,14.8,30.12,NNW,344,6.0,6.0,72,0.00,,---,0.00,VWS V14.01,2013-03-04 02:17:00,
2013-03-03 17:18:00,22.4,15.1,30.11,NE,40,8.0,10.0,73,0.00,,---,0.00,VWS V14.01,2013-03-04 02:18:00,
2013-03-03 17:19:00,22.3,14.7,30.12,NNE,26,5.0,10.0,72,0.00,,---,0.00,VWS V14.01,2013-03-04 02:19:00,
2013-03-03 17:22:00,22.2,14.9,30.11,North,5,8.0,14.0,73,0.00,,---,0.00,VWS V14.01,2013-03-04 02:22:00,
2013-03-03 17:24:00,22.2,14.9,30.12,NNE,24,6.0,15.0,73,0.00,,---,0.00,VWS V14.01,2013-03-04 02:24:00,
2013-03-03 17:27:00,22.1,14.8,30.11,North,360,7.0,10.0,73,0.00,,---,0.00,VWS V14.01,2013-03-04 02:27:00,
2013-03-03 17:28:00,22.1,14.8,30.11,North,5,8.0,11.0,73,0.00,,---,0.00,VWS V14.01,2013-03-04 02:28:00,
2013-03-03 17:29:00,22.1,14.8,30.11,North,5,9.0,11.0,73,0.00,,---,0.00,VWS V14.01,2013-03-04 02:29:00,
2013-03-03 17:32:00,21.9,14.6,30.11,North,355,9.0,10.0,73,0.00,,---,0.00,VWS V14.01,2013-03-04 02:32:00,
2013-03-03 17:33:00,21.9,14.9,30.11,North,360,10.0,12.0,74,0.00,,---,0.00,VWS V14.01,2013-03-04 02:33:00,
2013-03-03 17:34:00,21.9,14.9,30.11,North,360,9.0,13.0,74,0.00,,---,0.00,VWS V14.01,2013-03-04 02:34:00,
2013-03-03 17:35:00,21.8,14.8,30.11,North,5,13.0,13.0,74,0.00,,---,0.00,VWS V14.01,2013-03-04 02:35:00,
2013-03-03 17:37:00,21.7,14.7,30.12,North,355,3.0,8.0,74,0.00,,---,0.00,VWS V14.01,2013-03-04 02:37:00,
2013-03-03 17:38:00,21.7,14.7,30.12,North,5,9.0,9.0,74,0.00,,---,0.00,VWS V14.01,2013-03-04 02:38:00,
2013-03-03 17:40:00,21.6,14.6,30.12,NNE,13,12.0,13.0,74,0.00,,---,0.00,VWS V14.01,2013-03-04 02:40:00,
2013-03-03 17:42:00,21.6,14.6,30.12,North,360,8.0,10.0,74,0.00,,---,0.00,VWS V14.01,2013-03-04 02:42:00,
2013-03-03 17:43:00,21.5,14.5,30.12,North,355,7.0,11.0,74,0.00,,---,0.00,VWS V14.01,2013-03-04 02:43:00,
2013-03-03 17:45:00,21.5,14.5,30.12,NNW,336,6.0,11.0,74,0.00,,---,0.00,VWS V14.01,2013-03-04 02:45:00,
2013-03-03 17:46:00,21.5,14.5,30.12,NNW,348,6.0,11.0,74,0.00,,---,0.00,VWS V14.01,2013-03-04 02:46:00,
2013-03-03 17:47:00,21.4,14.4,30.12,NNE,32,5.0,9.0,74,0.00,,---,0.00,VWS V14.01,2013-03-04 02:47:00,
2013-03-03 17:48:00,21.3,14.3,30.12,NNE,19,7.0,9.0,74,0.00,,---,0.00,VWS V14.01,2013-03-04 02:48:00,
2013-03-03 17:50:00,21.3,14.3,30.12,NNW,333,3.0,9.0,74,0.00,,---,0.00,VWS V14.01,2013-03-04 02:50:00,
2013-03-03 17:51:00,21.3,14.0,30.12,NNW,333,3.0,9.0,73,0.00,,---,0.00,VWS V14.01,2013-03-04 02:51:00,
2013-03-03 17:53:00,21.1,13.8,30.12,NNW,327,5.0,6.0,73,0.00,,---,0.00,VWS V14.01,2013-03-04 02:53:00,
2013-03-03 17:55:00,20.9,13.6,30.12,North,355,5.0,7.0,73,0.00,,---,0.00,VWS V14.01,2013-03-04 02:55:00,
2013-03-03 17:56:00,20.9,13.9,30.12,North,351,4.0,7.0,74,0.00,,---,0.00,VWS V14.01,2013-03-04 02:56:00,
2013-03-03 17:58:00,20.9,13.9,30.12,NNW,347,0.0,6.0,74,0.00,,---,0.00,VWS V14.01,2013-03-04 02:58:00,
2013-03-03 18:00:00,20.9,13.9,30.12,NNW,348,3.0,8.0,74,0.00,,---,0.00,VWS V14.01,2013-03-04 03:00:00,
2013-03-03 18:01:00,20.9,13.9,30.12,NNW,348,2.0,8.0,74,0.00,,---,0.00,VWS V14.01,2013-03-04 03:01:00,
2013-03-03 18:03:00,20.8,13.8,30.12,NNW,348,3.0,6.0,74,0.00,,---,0.00,VWS V14.01,2013-03-04 03:03:00,
2013-03-03 18:05:00,20.7,13.7,30.12,North,5,6.0,6.0,74,0.00,,---,0.00,VWS V14.01,2013-03-04 03:05:00,
2013-03-03 18:06:00,20.7,13.7,30.12,NNE,26,3.0,10.0,74,0.00,,---,0.00,VWS V14.01,2013-03-04 03:06:00,
2013-03-03 18:08:00,20.8,13.8,30.12,NNE,26,0.0,4.0,74,0.00,,---,0.00,VWS V14.01,2013-03-04 03:08:00,
2013-03-03 18:10:00,20.7,13.7,30.12,NNE,12,3.0,5.0,74,0.00,,---,0.00,VWS V14.01,2013-03-04 03:10:00,
2013-03-03 18:11:00,20.7,13.7,30.12,NNE,12,1.0,5.0,74,0.00,,---,0.00,VWS V14.01,2013-03-04 03:11:00,
2013-03-03 18:13:00,20.6,13.6,30.12,NNE,12,2.0,2.0,74,0.00,,---,0.00,VWS V14.01,2013-03-04 03:13:00,
2013-03-03 18:14:00,20.6,13.6,30.12,North,5,3.0,5.0,74,0.00,,---,0.00,VWS V14.01,2013-03-04 03:14:00,
2013-03-03 18:16:00,20.4,13.4,30.12,North,360,3.0,5.0,74,0.00,,---,0.00,VWS V14.01,2013-03-04 03:16:00,
2013-03-03 18:17:00,20.3,13.4,30.12,North,355,3.0,4.0,74,0.00,,---,0.00,VWS V14.01,2013-03-04 03:17:00,
2013-03-03 18:18:00,20.1,13.2,30.12,NNW,341,2.0,5.0,74,0.00,,---,0.00,VWS V14.01,2013-03-04 03:18:00,
2013-03-03 18:19:00,20.0,13.1,30.12,NNW,341,2.0,5.0,74,0.00,,---,0.00,VWS V14.01,2013-03-04 03:19:00,
2013-03-03 18:21:00,19.7,13.1,30.12,NNW,327,5.0,6.0,75,0.00,,---,0.00,VWS V14.01,2013-03-04 03:21:00,
2013-03-03 18:22:00,19.6,13.0,30.12,NNW,328,3.0,5.0,75,0.00,,---,0.00,VWS V14.01,2013-03-04 03:22:00,
2013-03-03 18:23:00,19.4,12.8,30.12,NW,322,3.0,5.0,75,0.00,,---,0.00,VWS V14.01,2013-03-04 03:23:00,
2013-03-03 18:24:00,19.3,12.7,30.12,NW,322,2.0,5.0,75,0.00,,---,0.00,VWS V14.01,2013-03-04 03:24:00,
2013-03-03 18:27:00,19.2,12.9,30.13,NNW,329,2.0,3.0,76,0.00,,---,0.00,VWS V14.01,2013-03-04 03:27:00,
2013-03-03 18:28:00,19.0,12.7,30.13,NNW,329,3.0,4.0,76,0.00,,---,0.00,VWS V14.01,2013-03-04 03:28:00,
2013-03-03 18:29:00,19.0,12.7,30.13,NNW,329,3.0,4.0,76,0.00,,---,0.00,VWS V14.01,2013-03-04 03:29:00,
2013-03-03 18:32:00,18.8,12.8,30.13,NNW,340,5.0,6.0,77,0.00,,---,0.00,VWS V14.01,2013-03-04 03:32:00,
2013-03-03 18:33:00,18.8,12.8,30.13,NNW,342,3.0,6.0,77,0.00,,---,0.00,VWS V14.01,2013-03-04 03:33:00,
2013-03-03 18:34:00,18.8,12.8,30.12,NNW,342,2.0,6.0,77,0.00,,---,0.00,VWS V14.01,2013-03-04 03:34:00,
2013-03-03 18:37:00,18.7,12.7,30.13,NNW,342,2.0,2.0,77,0.00,,---,0.00,VWS V14.01,2013-03-04 03:37:00,
2013-03-03 18:38:00,18.8,13.1,30.12,NNW,342,0.0,2.0,78,0.00,,---,0.00,VWS V14.01,2013-03-04 03:38:00,
2013-03-03 18:40:00,18.8,12.8,30.12,NNW,342,0.0,2.0,77,0.00,,---,0.00,VWS V14.01,2013-03-04 03:40:00,
2013-03-03 18:42:00,18.8,12.8,30.13,NNW,342,0.0,0.0,77,0.00,,---,0.00,VWS V14.01,2013-03-04 03:42:00,
2013-03-03 18:43:00,18.8,12.8,30.13,NNW,342,0.0,2.0,77,0.00,,---,0.00,VWS V14.01,2013-03-04 03:43:00,
2013-03-03 18:45:00,18.8,12.8,30.13,NNW,342,1.0,2.0,77,0.00,,---,0.00,VWS V14.01,2013-03-04 03:45:00,
2013-03-03 18:47:00,18.7,12.7,30.13,NNW,342,0.0,0.0,77,0.00,,---,0.00,VWS V14.01,2013-03-04 03:47:00,
2013-03-03 18:48:00,18.8,12.8,30.13,NNW,342,0.0,0.0,77,0.00,,---,0.00,VWS V14.01,2013-03-04 03:48:00,
2013-03-03 18:50:00,18.7,12.7,30.13,NNW,342,0.0,2.0,77,0.00,,---,0.00,VWS V14.01,2013-03-04 03:50:00,
2013-03-03 18:52:00,18.6,12.3,30.13,NNW,342,0.0,1.0,76,0.00,,---,0.00,VWS V14.01,2013-03-04 03:52:00,
2013-03-03 18:53:00,18.6,12.3,30.13,NNW,342,0.0,1.0,76,0.00,,---,0.00,VWS V14.01,2013-03-04 03:53:00,
2013-03-03 18:54:00,18.5,12.2,30.13,NNW,342,0.0,1.0,76,0.00,,---,0.00,VWS V14.01,2013-03-04 03:54:00,
2013-03-03 18:55:00,18.5,12.5,30.13,NNW,342,2.0,3.0,77,0.00,,---,0.00,VWS V14.01,2013-03-04 03:55:00,
2013-03-03 18:57:00,18.4,12.4,30.13,NNW,342,0.0,0.0,77,0.00,,---,0.00,VWS V14.01,2013-03-04 03:57:00,
2013-03-03 18:58:00,18.4,12.4,30.13,NNW,342,0.0,0.0,77,0.00,,---,0.00,VWS V14.01,2013-03-04 03:58:00,
2013-03-03 18:59:00,18.3,12.3,30.13,NNW,342,0.0,0.0,77,0.00,,---,0.00,VWS V14.01,2013-03-04 03:59:00,
2013-03-03 19:00:00,18.3,12.3,30.13,NNW,342,0.0,0.0,77,0.00,,---,0.00,VWS V14.01,2013-03-04 04:00:00,
2013-03-03 19:03:00,18.1,12.1,30.13,NNW,342,0.0,0.0,77,0.00,,---,0.00,VWS V14.01,2013-03-04 04:03:00,
2013-03-03 19:04:00,18.0,12.0,30.13,NNW,342,0.0,0.0,77,0.00,,---,0.00,VWS V14.01,2013-03-04 04:04:00,
2013-03-03 19:05:00,17.9,11.9,30.13,NNW,342,0.0,3.0,77,0.00,,---,0.00,VWS V14.01,2013-03-04 04:05:00,
2013-03-03 19:08:00,17.6,11.9,30.13,NNW,342,3.0,3.0,78,0.00,,---,0.00,VWS V14.01,2013-03-04 04:08:00,
2013-03-03 19:09:00,17.6,11.9,30.13,NNW,342,2.0,3.0,78,0.00,,---,0.00,VWS V14.01,2013-03-04 04:09:00,
2013-03-03 19:11:00,17.5,11.8,30.13,NNW,342,4.0,4.0,78,0.00,,---,0.00,VWS V14.01,2013-03-04 04:11:00,
2013-03-03 19:13:00,17.2,11.5,30.13,NNW,342,2.0,3.0,78,0.00,,---,0.00,VWS V14.01,2013-03-04 04:13:00,
2013-03-03 19:14:00,17.1,11.4,30.13,NNW,342,2.0,3.0,78,0.00,,---,0.00,VWS V14.01,2013-03-04 04:14:00,
2013-03-03 19:16:00,17.0,11.3,30.13,NNW,342,2.0,3.0,78,0.00,,---,0.00,VWS V14.01,2013-03-04 04:16:00,
2013-03-03 19:19:00,16.8,11.4,30.14,NNW,342,0.0,3.0,79,0.00,,---,0.00,VWS V14.01,2013-03-04 04:19:00,
2013-03-03 19:21:00,16.7,11.3,30.13,NNW,342,0.0,3.0,79,0.00,,---,0.00,VWS V14.01,2013-03-04 04:21:00,
2013-03-03 19:24:00,16.6,11.2,30.14,NNW,342,0.0,0.0,79,0.00,,---,0.00,VWS V14.01,2013-03-04 04:24:00,
2013-03-03 19:26:00,16.6,11.5,30.14,NNW,342,0.0,0.0,80,0.00,,---,0.00,VWS V14.01,2013-03-04 04:26:00,
2013-03-03 19:29:00,16.4,11.3,30.14,NNW,342,1.0,1.0,80,0.00,,---,0.00,VWS V14.01,2013-03-04 04:29:00,
2013-03-03 19:30:00,16.4,11.0,30.14,NNW,342,1.0,2.0,79,0.00,,---,0.00,VWS V14.01,2013-03-04 04:30:00,
2013-03-03 19:31:00,16.3,10.9,30.14,NNW,342,0.0,2.0,79,0.00,,---,0.00,VWS V14.01,2013-03-04 04:31:00,
2013-03-03 19:34:00,16.0,10.9,30.14,NNW,342,0.0,0.0,80,0.00,,---,0.00,VWS V14.01,2013-03-04 04:34:00,
2013-03-03 19:35:00,15.9,10.8,30.14,NNW,342,0.0,0.0,80,0.00,,---,0.00,VWS V14.01,2013-03-04 04:35:00,
2013-03-03 19:36:00,15.8,10.7,30.14,NNW,342,2.0,3.0,80,0.00,,---,0.00,VWS V14.01,2013-03-04 04:36:00,
2013-03-03 19:39:00,15.4,10.4,30.14,NNW,342,0.0,3.0,80,0.00,,---,0.00,VWS V14.01,2013-03-04 04:39:00,
2013-03-03 19:40:00,15.4,10.4,30.14,NNW,342,0.0,3.0,80,0.00,,---,0.00,VWS V14.01,2013-03-04 04:40:00,
2013-03-03 19:41:00,16.5,10.6,30.14,West,275,3.0,5.0,77,0.00,,---,0.00,VWS V14.01,2013-03-04 04:41:00,
2013-03-03 19:45:00,16.7,10.5,30.14,NE,56,3.0,4.0,76,0.00,,---,0.00,VWS V14.01,2013-03-04 04:45:00,
2013-03-03 19:46:00,16.5,10.3,30.14,NW,306,4.0,4.0,76,0.00,,---,0.00,VWS V14.01,2013-03-04 04:46:00,
2013-03-03 19:50:00,16.5,10.3,30.14,East,86,4.0,6.0,76,0.00,,---,0.00,VWS V14.01,2013-03-04 04:50:00,
2013-03-03 19:52:00,16.3,10.4,30.14,NE,56,1.0,1.0,77,0.00,,---,0.00,VWS V14.01,2013-03-04 04:52:00,
2013-03-03 19:55:00,16.1,10.2,30.14,NW,320,3.0,3.0,77,0.00,,---,0.00,VWS V14.01,2013-03-04 04:55:00,
2013-03-03 19:57:00,15.8,9.6,30.14,NW,322,1.0,1.0,76,0.00,,---,0.00,VWS V14.01,2013-03-04 04:57:00,
2013-03-03 20:00:00,15.5,9.0,30.14,NW,322,1.0,1.0,75,0.00,,---,0.00,VWS V14.01,2013-03-04 05:00:00,
2013-03-03 20:05:00,14.9,9.0,30.14,SE,144,0.0,1.0,77,0.00,,---,0.00,VWS V14.01,2013-03-04 05:05:00,
2013-03-03 20:10:00,14.8,9.2,30.13,NE,47,2.0,4.0,78,0.00,,---,0.00,VWS V14.01,2013-03-04 05:10:00,
2013-03-03 20:15:00,14.8,9.2,30.13,NE,56,1.0,2.0,78,0.00,,---,0.00,VWS V14.01,2013-03-04 05:15:00,
2013-03-03 20:16:00,14.8,9.2,30.13,NE,56,0.0,2.0,78,0.00,,---,0.00,VWS V14.01,2013-03-04 05:16:00,
2013-03-03 20:20:00,14.3,8.4,30.13,NE,46,1.0,3.0,77,0.00,,---,0.00,VWS V14.01,2013-03-04 05:20:00,
2013-03-03 20:21:00,14.1,8.2,30.13,West,271,4.0,4.0,77,0.00,,---,0.00,VWS V14.01,2013-03-04 05:21:00,
2013-03-03 20:25:00,13.5,8.2,30.14,NW,308,2.0,4.0,79,0.00,,---,0.00,VWS V14.01,2013-03-04 05:25:00,
2013-03-03 20:26:00,13.6,8.6,30.14,NW,326,3.0,4.0,80,0.00,,---,0.00,VWS V14.01,2013-03-04 05:26:00,
2013-03-03 20:30:00,13.7,8.4,30.14,NNE,22,2.0,5.0,79,0.00,,---,0.00,VWS V14.01,2013-03-04 05:30:00,
2013-03-03 20:31:00,13.7,8.7,30.14,West,266,3.0,5.0,80,0.00,,---,0.00,VWS V14.01,2013-03-04 05:31:00,
2013-03-03 20:35:00,13.7,8.4,30.14,NE,38,3.0,5.0,79,0.00,,---,0.00,VWS V14.01,2013-03-04 05:35:00,
2013-03-03 20:36:00,13.5,8.2,30.14,NW,311,2.0,5.0,79,0.00,,---,0.00,VWS V14.01,2013-03-04 05:36:00,
2013-03-03 20:40:00,13.3,8.3,30.14,NW,306,0.0,4.0,80,0.00,,---,0.00,VWS V14.01,2013-03-04 05:40:00,
2013-03-03 20:41:00,13.3,8.3,30.14,NW,306,0.0,4.0,80,0.00,,---,0.00,VWS V14.01,2013-03-04 05:41:00,
2013-03-03 20:45:00,13.0,8.0,30.14,NNE,18,1.0,2.0,80,0.00,,---,0.00,VWS V14.01,2013-03-04 05:45:00,
2013-03-03 20:46:00,13.0,8.3,30.14,NNE,18,0.0,2.0,81,0.00,,---,0.00,VWS V14.01,2013-03-04 05:46:00,
2013-03-03 20:47:00,13.1,8.4,30.14,NNE,18,0.0,0.0,81,0.00,,---,0.00,VWS V14.01,2013-03-04 05:47:00,
2013-03-03 20:50:00,13.0,8.6,30.13,East,79,1.0,2.0,82,0.00,,---,0.00,VWS V14.01,2013-03-04 05:50:00,
2013-03-03 20:51:00,13.0,8.6,30.13,West,279,0.0,3.0,82,0.00,,---,0.00,VWS V14.01,2013-03-04 05:51:00,
2013-03-03 20:52:00,13.0,8.6,30.13,SE,124,2.0,2.0,82,0.00,,---,0.00,VWS V14.01,2013-03-04 05:52:00,
2013-03-03 20:56:00,13.0,8.6,30.13,SSW,207,1.0,2.0,82,0.00,,---,0.00,VWS V14.01,2013-03-04 05:56:00,
2013-03-03 20:57:00,13.1,8.6,30.13,SSW,209,0.0,1.0,82,0.00,,---,0.00,VWS V14.01,2013-03-04 05:57:00,
2013-03-03 21:01:00,14.5,10.3,30.13,ENE,76,3.0,7.0,83,0.00,,---,0.00,VWS V14.01,2013-03-04 06:01:00,
2013-03-03 21:02:00,15.0,10.8,30.13,ENE,71,3.0,3.0,83,0.00,,---,0.00,VWS V14.01,2013-03-04 06:02:00,
2013-03-03 21:06:00,16.6,11.2,30.13,ESE,107,2.0,6.0,79,0.00,,---,0.00,VWS V14.01,2013-03-04 06:06:00,
2013-03-03 21:07:00,16.8,11.1,30.13,ENE,66,1.0,1.0,78,0.00,,---,0.00,VWS V14.01,2013-03-04 06:07:00,
2013-03-03 21:08:00,17.0,11.3,30.13,East,97,2.0,5.0,78,0.00,,---,0.00,VWS V14.01,2013-03-04 06:08:00,
2013-03-03 21:11:00,17.2,10.9,30.13,East,91,2.0,5.0,76,0.00,,---,0.00,VWS V14.01,2013-03-04 06:11:00,
2013-03-03 21:12:00,17.2,10.9,30.13,East,92,2.0,2.0,76,0.00,,---,0.00,VWS V14.01,2013-03-04 06:12:00,
2013-03-03 21:13:00,17.3,11.1,30.13,ENE,59,5.0,6.0,76,0.00,,---,0.00,VWS V14.01,2013-03-04 06:13:00,
2013-03-03 21:16:00,18.0,11.4,30.13,ENE,67,8.0,10.0,75,0.00,,---,0.00,VWS V14.01,2013-03-04 06:16:00,
2013-03-03 21:17:00,18.1,11.5,30.13,ENE,69,6.0,8.0,75,0.00,,---,0.00,VWS V14.01,2013-03-04 06:17:00,
2013-03-03 21:18:00,18.7,11.8,30.13,East,81,6.0,8.0,74,0.00,,---,0.00,VWS V14.01,2013-03-04 06:18:00,
2013-03-03 21:21:00,19.3,11.8,30.13,ENE,70,6.0,10.0,72,0.00,,---,0.00,VWS V14.01,2013-03-04 06:21:00,
2013-03-03 21:22:00,19.3,11.8,30.13,East,86,6.0,6.0,72,0.00,,---,0.00,VWS V14.01,2013-03-04 06:22:00,
2013-03-03 21:23:00,19.4,11.9,30.13,East,95,6.0,8.0,72,0.00,,---,0.00,VWS V14.01,2013-03-04 06:23:00,
2013-03-03 21:26:00,19.4,11.9,30.13,ESE,118,4.0,8.0,72,0.00,,---,0.00,VWS V14.01,2013-03-04 06:26:00,
2013-03-03 21:27:00,19.4,11.9,30.13,SE,129,2.0,4.0,72,0.00,,---,0.00,VWS V14.01,2013-03-04 06:27:00,
2013-03-03 21:28:00,19.4,11.6,30.12,ESE,123,2.0,5.0,71,0.00,,---,0.00,VWS V14.01,2013-03-04 06:28:00,
2013-03-03 21:31:00,19.1,11.3,30.12,East,86,4.0,6.0,71,0.00,,---,0.00,VWS V14.01,2013-03-04 06:31:00,
2013-03-03 21:32:00,19.1,11.6,30.12,ENE,76,5.0,7.0,72,0.00,,---,0.00,VWS V14.01,2013-03-04 06:32:00,
2013-03-03 21:33:00,19.1,11.6,30.12,ESE,103,2.0,7.0,72,0.00,,---,0.00,VWS V14.01,2013-03-04 06:33:00,
2013-03-03 21:36:00,19.4,11.9,30.12,ENE,67,8.0,8.0,72,0.00,,---,0.00,VWS V14.01,2013-03-04 06:36:00,
2013-03-03 21:37:00,19.5,12.0,30.12,East,101,7.0,10.0,72,0.00,,---,0.00,VWS V14.01,2013-03-04 06:37:00,
2013-03-03 21:38:00,19.7,11.8,30.12,East,96,2.0,10.0,71,0.00,,---,0.00,VWS V14.01,2013-03-04 06:38:00,
2013-03-03 21:39:00,19.8,11.9,30.12,ENE,76,5.0,10.0,71,0.00,,---,0.00,VWS V14.01,2013-03-04 06:39:00,
2013-03-03 21:41:00,20.3,12.4,30.12,SSE,165,4.0,11.0,71,0.00,,---,0.00,VWS V14.01,2013-03-04 06:41:00,
2013-03-03 21:42:00,20.3,12.4,30.12,East,81,2.0,4.0,71,0.00,,---,0.00,VWS V14.01,2013-03-04 06:42:00,
2013-03-03 21:43:00,20.4,12.2,30.12,ESE,103,4.0,8.0,70,0.00,,---,0.00,VWS V14.01,2013-03-04 06:43:00,
2013-03-03 21:44:00,20.4,12.2,30.12,ESE,108,2.0,8.0,70,0.00,,---,0.00,VWS V14.01,2013-03-04 06:44:00,
2013-03-03 21:46:00,20.4,12.2,30.12,ESE,113,4.0,8.0,70,0.00,,---,0.00,VWS V14.01,2013-03-04 06:46:00,
2013-03-03 21:47:00,20.4,12.2,30.12,ESE,103,5.0,9.0,70,0.00,,---,0.00,VWS V14.01,2013-03-04 06:47:00,
2013-03-03 21:48:00,20.4,12.5,30.12,ESE,117,7.0,9.0,71,0.00,,---,0.00,VWS V14.01,2013-03-04 06:48:00,
2013-03-03 21:49:00,20.4,12.5,30.12,SE,146,2.0,9.0,71,0.00,,---,0.00,VWS V14.01,2013-03-04 06:49:00,
2013-03-03 21:52:00,20.4,12.5,30.12,ESE,105,2.0,2.0,71,0.00,,---,0.00,VWS V14.01,2013-03-04 06:52:00,
2013-03-03 21:53:00,20.4,12.5,30.13,ESE,105,2.0,2.0,71,0.00,,---,0.00,VWS V14.01,2013-03-04 06:53:00,
2013-03-03 21:54:00,21.4,14.1,30.13,NNE,19,3.0,10.0,73,0.00,,---,0.00,VWS V14.01,2013-03-04 06:54:00,
2013-03-03 21:57:00,21.5,14.2,30.13,North,360,4.0,5.0,73,0.00,,---,0.00,VWS V14.01,2013-03-04 06:57:00,
2013-03-03 21:58:00,21.4,14.1,30.13,ENE,59,2.0,7.0,73,0.00,,---,0.00,VWS V14.01,2013-03-04 06:58:00,
2013-03-03 21:59:00,21.5,14.2,30.13,East,89,4.0,8.0,73,0.00,,---,0.00,VWS V14.01,2013-03-04 06:59:00,
2013-03-03 22:03:00,21.4,14.1,30.12,ESE,116,0.0,6.0,73,0.00,,---,0.00,VWS V14.01,2013-03-04 07:03:00,
2013-03-03 22:05:00,21.3,13.7,30.12,ESE,117,0.0,6.0,72,0.00,,---,0.00,VWS V14.01,2013-03-04 07:05:00,
2013-03-03 22:08:00,21.0,13.4,30.13,East,83,5.0,7.0,72,0.00,,---,0.00,VWS V14.01,2013-03-04 07:08:00,
2013-03-03 22:09:00,20.8,13.5,30.13,ESE,111,6.0,7.0,73,0.00,,---,0.00,VWS V14.01,2013-03-04 07:09:00,
2013-03-03 22:10:00,20.6,13.3,30.13,ESE,111,2.0,7.0,73,0.00,,---,0.00,VWS V14.01,2013-03-04 07:10:00,
2013-03-03 22:13:00,20.2,12.9,30.13,ESE,111,0.0,5.0,73,0.00,,---,0.00,VWS V14.01,2013-03-04 07:13:00,
2013-03-03 22:14:00,20.2,13.2,30.13,ESE,111,2.0,5.0,74,0.00,,---,0.00,VWS V14.01,2013-03-04 07:14:00,
2013-03-03 22:15:00,20.0,13.1,30.12,ESE,123,6.0,8.0,74,0.00,,---,0.00,VWS V14.01,2013-03-04 07:15:00,
2013-03-03 22:18:00,20.1,13.5,30.13,ESE,106,2.0,7.0,75,0.00,,---,0.00,VWS V14.01,2013-03-04 07:18:00,
2013-03-03 22:19:00,20.1,13.5,30.13,ESE,106,4.0,7.0,75,0.00,,---,0.00,VWS V14.01,2013-03-04 07:19:00,
2013-03-03 22:21:00,20.2,13.6,30.12,SE,141,5.0,7.0,75,0.00,,---,0.00,VWS V14.01,2013-03-04 07:21:00,
2013-03-03 22:24:00,20.1,13.5,30.12,SE,146,6.0,7.0,75,0.00,,---,0.00,VWS V14.01,2013-03-04 07:24:00,
2013-03-03 22:26:00,20.1,13.5,30.13,SE,128,4.0,7.0,75,0.00,,---,0.00,VWS V14.01,2013-03-04 07:26:00,
2013-03-03 22:29:00,20.2,13.6,30.13,East,88,4.0,5.0,75,0.00,,---,0.00,VWS V14.01,2013-03-04 07:29:00,
2013-03-03 22:30:00,20.2,13.6,30.13,ESE,108,4.0,6.0,75,0.00,,---,0.00,VWS V14.01,2013-03-04 07:30:00,
2013-03-03 22:31:00,20.3,13.7,30.13,ESE,111,5.0,7.0,75,0.00,,---,0.00,VWS V14.01,2013-03-04 07:31:00,
2013-03-03 22:34:00,20.5,13.9,30.13,SE,131,1.0,10.0,75,0.00,,---,0.00,VWS V14.01,2013-03-04 07:34:00,
2013-03-03 22:35:00,20.5,13.9,30.13,ESE,104,5.0,10.0,75,0.00,,---,0.00,VWS V14.01,2013-03-04 07:35:00,
2013-03-03 22:36:00,20.5,13.9,30.13,SE,134,5.0,10.0,75,0.00,,---,0.00,VWS V14.01,2013-03-04 07:36:00,
2013-03-03 22:39:00,20.6,13.9,30.13,SE,135,5.0,9.0,75,0.00,,---,0.00,VWS V14.01,2013-03-04 07:39:00,
2013-03-03 22:40:00,20.6,13.6,30.13,SE,124,0.0,9.0,74,0.00,,---,0.00,VWS V14.01,2013-03-04 07:40:00,
2013-03-03 22:41:00,20.6,13.6,30.13,SSE,147,1.0,9.0,74,0.00,,---,0.00,VWS V14.01,2013-03-04 07:41:00,
2013-03-03 22:44:00,20.8,14.1,30.13,SE,146,0.0,5.0,75,0.00,,---,0.00,VWS V14.01,2013-03-04 07:44:00,
2013-03-03 22:45:00,20.8,14.1,30.13,SE,146,0.0,5.0,75,0.00,,---,0.00,VWS V14.01,2013-03-04 07:45:00,
2013-03-03 22:47:00,20.9,13.9,30.13,ENE,77,2.0,3.0,74,0.00,,---,0.00,VWS V14.01,2013-03-04 07:47:00,
2013-03-03 22:49:00,21.0,14.0,30.13,ESE,105,0.0,5.0,74,0.00,,---,0.00,VWS V14.01,2013-03-04 07:49:00,
2013-03-03 22:50:00,21.0,14.0,30.13,ESE,105,1.0,5.0,74,0.00,,---,0.00,VWS V14.01,2013-03-04 07:50:00,
2013-03-03 22:51:00,21.0,14.0,30.13,ESE,116,0.0,5.0,74,0.00,,---,0.00,VWS V14.01,2013-03-04 07:51:00,
2013-03-03 22:52:00,21.0,13.7,30.13,ESE,116,4.0,4.0,73,0.00,,---,0.00,VWS V14.01,2013-03-04 07:52:00,
2013-03-03 22:54:00,20.9,13.6,30.13,SE,125,0.0,6.0,73,0.00,,---,0.00,VWS V14.01,2013-03-04 07:54:00,
2013-03-03 22:55:00,20.9,13.6,30.13,SE,125,0.0,6.0,73,0.00,,---,0.00,VWS V14.01,2013-03-04 07:55:00,
2013-03-03 22:56:00,20.9,13.6,30.13,SE,125,1.0,6.0,73,0.00,,---,0.00,VWS V14.01,2013-03-04 07:56:00,
2013-03-03 22:57:00,20.8,13.5,30.14,SE,125,2.0,4.0,73,0.00,,---,0.00,VWS V14.01,2013-03-04 07:57:00,
2013-03-03 23:00:00,20.6,13.3,30.14,SE,125,1.0,4.0,73,0.00,,---,0.00,VWS V14.01,2013-03-04 08:00:00,
2013-03-03 23:01:00,20.4,13.1,30.14,SE,125,0.0,4.0,73,0.00,,---,0.00,VWS V14.01,2013-03-04 08:01:00,
2013-03-03 23:02:00,20.3,13.0,30.14,SE,125,2.0,7.0,73,0.00,,---,0.00,VWS V14.01,2013-03-04 08:02:00,
2013-03-03 23:05:00,20.4,13.4,30.14,SE,129,0.0,7.0,74,0.00,,---,0.00,VWS V14.01,2013-03-04 08:05:00,
2013-03-03 23:06:00,20.5,13.5,30.14,SE,129,0.0,7.0,74,0.00,,---,0.00,VWS V14.01,2013-03-04 08:06:00,
2013-03-03 23:07:00,20.6,13.6,30.14,ESE,119,4.0,6.0,74,0.00,,---,0.00,VWS V14.01,2013-03-04 08:07:00,
2013-03-03 23:10:00,20.9,13.9,30.14,ENE,69,4.0,7.0,74,0.00,,---,0.00,VWS V14.01,2013-03-04 08:10:00,
2013-03-03 23:11:00,21.0,14.0,30.14,NE,56,7.0,7.0,74,0.00,,---,0.00,VWS V14.01,2013-03-04 08:11:00,
2013-03-03 23:12:00,21.2,14.2,30.13,ENE,68,2.0,5.0,74,0.00,,---,0.00,VWS V14.01,2013-03-04 08:12:00,
2013-03-03 23:16:00,21.7,14.4,30.13,NE,43,4.0,8.0,73,0.00,,---,0.00,VWS V14.01,2013-03-04 08:16:00,
2013-03-03 23:17:00,21.9,14.6,30.13,NE,55,4.0,4.0,73,0.00,,---,0.00,VWS V14.01,2013-03-04 08:17:00,
2013-03-03 23:21:00,22.2,14.6,30.13,NNE,30,10.0,10.0,72,0.00,,---,0.00,VWS V14.01,2013-03-04 08:21:00,
2013-03-03 23:22:00,22.3,14.7,30.13,NNE,33,5.0,6.0,72,0.00,,---,0.00,VWS V14.01,2013-03-04 08:22:00,
2013-03-03 23:26:00,22.7,14.7,30.13,NE,34,6.0,10.0,71,0.00,,---,0.00,VWS V14.01,2013-03-04 08:26:00,
2013-03-03 23:27:00,22.8,14.8,30.13,NE,38,3.0,6.0,71,0.00,,---,0.00,VWS V14.01,2013-03-04 08:27:00,
2013-03-03 23:31:00,22.8,14.5,30.13,NE,55,4.0,10.0,70,0.00,,---,0.00,VWS V14.01,2013-03-04 08:31:00,
2013-03-03 23:32:00,22.8,14.5,30.13,ENE,57,3.0,4.0,70,0.00,,---,0.00,VWS V14.01,2013-03-04 08:32:00,
2013-03-03 23:36:00,22.8,14.5,30.13,ENE,63,1.0,9.0,70,0.00,,---,0.00,VWS V14.01,2013-03-04 08:36:00,
2013-03-03 23:37:00,22.8,14.5,30.13,ENE,63,2.0,3.0,70,0.00,,---,0.00,VWS V14.01,2013-03-04 08:37:00,
2013-03-03 23:38:00,22.8,14.5,30.13,NE,44,0.0,6.0,70,0.00,,---,0.00,VWS V14.01,2013-03-04 08:38:00,
2013-03-03 23:41:00,22.6,14.0,30.14,NE,39,0.0,6.0,69,0.00,,---,0.00,VWS V14.01,2013-03-04 08:41:00,
2013-03-03 23:42:00,22.6,14.3,30.13,NE,39,2.0,2.0,70,0.00,,---,0.00,VWS V14.01,2013-03-04 08:42:00,
2013-03-03 23:43:00,22.6,14.3,30.14,ENE,64,2.0,4.0,70,0.00,,---,0.00,VWS V14.01,2013-03-04 08:43:00,
2013-03-03 23:46:00,22.6,14.0,30.14,South,171,1.0,7.0,69,0.00,,---,0.00,VWS V14.01,2013-03-04 08:46:00,
2013-03-03 23:47:00,22.6,14.0,30.14,South,171,0.0,1.0,69,0.00,,---,0.00,VWS V14.01,2013-03-04 08:47:00,
2013-03-03 23:48:00,22.5,13.9,30.14,SE,131,0.0,1.0,69,0.00,,---,0.00,VWS V14.01,2013-03-04 08:48:00,
2013-03-03 23:52:00,22.4,13.8,30.14,East,80,3.0,6.0,69,0.00,,---,0.00,VWS V14.01,2013-03-04 08:52:00,
2013-03-03 23:53:00,22.5,13.9,30.14,ENE,73,2.0,6.0,69,0.00,,---,0.00,VWS V14.01,2013-03-04 08:53:00,
2013-03-03 23:57:00,22.5,13.9,30.14,East,79,0.0,0.0,69,0.00,,---,0.00,VWS V14.01,2013-03-04 08:57:00,
2013-03-03 23:58:00,22.5,13.9,30.14,East,79,0.0,0.0,69,0.00,,---,0.00,VWS V14.01,2013-03-04 08:58:00,